M I D A S
Marine Information and Data Acquisition System
Tripno 1882 of the Zeeleeuw from 2010-05-20 07:24:50 to 2010-05-20 13:17:42
Back to CruiseResearch ActivitiesStationsMapUnderway DataData graphs

EquipmentUnitsComment
TimeDGPSUTC
LatitudeDGPSDM.mWGS84
LongitudeDGPSDM.mWGS84
TemperatureSBE03/SBE38deg celciusITS90
ConductivitySBE21S/mITS90
SalinitySBE21 Practical Salinity Units
ChlorophylAChelsea fluorimeterg/lCalibrated in Aceton
Missing or incorrect values are displayed as -999
Sea surface data collected by the RV Zeeleeuw from 2010-05-20 06:15:02 to 2010-05-20 15:18:10
                                                                                    Next 1000 lines
Time Latitude Longitude Temperature Conductivity Salinity ChlorophylA
2010-05-20 06:15:13 51°13.661 2°55.964 20.3211 0.065786 0.348644 -1.000568
2010-05-20 06:15:17 51°13.661 2°55.964 20.3213 0.065786 0.348644 -1.000568
2010-05-20 06:15:22 51°13.66 2°55.964 20.3235 0.065786 0.348649 -1.035392
2010-05-20 06:15:27 51°13.66 2°55.964 20.3237 0.065786 0.348649 -1.000568
2010-05-20 06:15:32 51°13.659 2°55.964 20.3247 0.065786 0.348644 -1.035392
2010-05-20 06:15:37 51°13.659 2°55.964 20.3241 0.065786 0.348649 -1.000568
2010-05-20 06:15:42 51°13.659 2°55.964 20.3229 0.065786 0.348654 -1.070216
2010-05-20 06:15:47 51°13.659 2°55.964 20.3239 0.065786 0.348654 -1.070216
2010-05-20 06:15:52 51°13.659 2°55.964 20.3242 0.065786 0.348654 -1.035392
2010-05-20 06:15:57 51°13.659 2°55.964 20.3256 0.065786 0.34866 -1.000568
2010-05-20 06:16:03 51°13.659 2°55.963 20.3262 0.065786 0.34866 -1.000568
2010-05-20 06:16:07 51°13.659 2°55.963 20.3264 0.065786 0.34866 -1.035392
2010-05-20 06:16:12 51°13.659 2°55.963 20.3287 0.065786 0.348665 -1.035392
2010-05-20 06:16:17 51°13.659 2°55.963 20.3309 0.065786 0.348665 -1.035392
2010-05-20 06:16:22 51°13.659 2°55.963 20.3325 0.065786 0.348665 -1.000568
2010-05-20 06:16:27 51°13.659 2°55.963 20.3329 0.065786 0.348671 -1.035392
2010-05-20 06:16:32 51°13.66 2°55.963 20.3324 0.065786 0.348671 -1.000568
2010-05-20 06:16:37 51°13.66 2°55.962 20.33 0.065786 0.348654 -1.035392
2010-05-20 06:16:42 51°13.66 2°55.962 20.3288 0.065786 0.348595 -1.035392
2010-05-20 06:16:48 51°13.661 2°55.962 20.325 0.065786 0.348595 -1.035392
2010-05-20 06:16:53 51°13.661 2°55.962 20.3258 0.065786 0.348552 -1.035392
2010-05-20 06:16:58 51°13.661 2°55.962 20.3278 0.065786 0.348558 -1.000568
2010-05-20 06:17:03 51°13.661 2°55.962 20.3294 0.065786 0.348606 -1.035392
2010-05-20 06:17:08 51°13.661 2°55.961 20.3288 0.065786 0.348681 -1.035392
2010-05-20 06:17:13 51°13.661 2°55.961 20.3289 0.065786 0.348681 -1.035392
2010-05-20 06:17:18 51°13.661 2°55.961 20.3283 0.065786 0.348746 -1.000568
2010-05-20 06:17:23 51°13.661 2°55.961 20.3236 0.065786 0.348778 -1.035392
2010-05-20 06:17:28 51°13.661 2°55.961 20.3319 0.065786 0.348768 -1.035392
2010-05-20 06:17:33 51°13.661 2°55.961 20.338 0.065786 0.34873 -1.000568
2010-05-20 06:17:38 51°13.662 2°55.961 20.3511 0.065786 0.348681 -1.000568
2010-05-20 06:17:43 51°13.662 2°55.961 20.3482 0.065786 0.348644 -1.000568
2010-05-20 06:17:48 51°13.662 2°55.961 20.3488 0.065786 0.348644 -1.000568
2010-05-20 06:17:53 51°13.662 2°55.961 20.3486 0.065786 0.348628 -1.035392
2010-05-20 06:17:58 51°13.662 2°55.961 20.3484 0.065786 0.348644 -1.035392
2010-05-20 06:18:03 51°13.661 2°55.961 20.3477 0.065786 0.348671 -1.035392
2010-05-20 06:18:08 51°13.661 2°55.961 20.3443 0.065786 0.348703 -0.965744
2010-05-20 06:18:13 51°13.661 2°55.961 20.3459 0.065786 0.348724 -1.035392
2010-05-20 06:18:18 51°13.661 2°55.961 20.3458 0.065786 0.348724 -1.035392
2010-05-20 06:18:23 51°13.661 2°55.961 20.3461 0.065786 0.348741 -1.035392
2010-05-20 06:18:28 51°13.661 2°55.961 20.3471 0.065786 0.34873 -1.000568
2010-05-20 06:18:33 51°13.661 2°55.961 20.3482 0.065786 0.348724 -1.000568
2010-05-20 06:18:38 51°13.661 2°55.961 20.3481 0.065786 0.348708 -1.000568
2010-05-20 06:18:43 51°13.661 2°55.96 20.3451 0.065786 0.348698 -1.035392
2010-05-20 06:18:48 51°13.661 2°55.96 20.3418 0.065786 0.348698 -1.035392
2010-05-20 06:18:53 51°13.661 2°55.96 20.3413 0.065786 0.348687 -0.965744
2010-05-20 06:18:58 51°13.661 2°55.96 20.3409 0.065786 0.348698 -1.035392
2010-05-20 06:19:03 51°13.661 2°55.96 20.3389 0.065786 0.348703 -1.000568
2010-05-20 06:19:07 51°13.66 2°55.96 20.3399 0.065786 0.348708 -1.035392
2010-05-20 06:19:12 51°13.66 2°55.96 20.3404 0.065786 0.348708 -1.035392
2010-05-20 06:19:18 51°13.66 2°55.96 20.3425 0.065786 0.348719 -1.000568
2010-05-20 06:19:23 51°13.66 2°55.96 20.3448 0.065786 0.348719 -1.035392
2010-05-20 06:19:28 51°13.661 2°55.96 20.3445 0.065786 0.348714 -1.000568
2010-05-20 06:19:33 51°13.661 2°55.96 20.3434 0.065786 0.348714 -1.000568
2010-05-20 06:19:38 51°13.661 2°55.96 20.3373 0.065786 0.348714 -1.000568
2010-05-20 06:19:43 51°13.661 2°55.96 20.3329 0.065786 0.348714 -1.000568
2010-05-20 06:19:48 51°13.661 2°55.96 20.3343 0.065786 0.348719 -1.035392
2010-05-20 06:19:53 51°13.661 2°55.96 20.3372 0.065786 0.348719 -1.035392
2010-05-20 06:19:58 51°13.661 2°55.96 20.3406 0.065786 0.348724 -1.000568
2010-05-20 06:20:03 51°13.661 2°55.96 20.3424 0.065786 0.348735 -1.000568
2010-05-20 06:20:08 51°13.661 2°55.96 20.344 0.065786 0.34873 -1.035392
2010-05-20 06:20:13 51°13.661 2°55.96 20.3435 0.065786 0.34873 -1.000568
2010-05-20 06:20:18 51°13.661 2°55.96 20.3438 0.065786 0.34873 -1.000568
2010-05-20 06:20:23 51°13.661 2°55.96 20.3463 0.065786 0.348724 -1.035392
2010-05-20 06:20:28 51°13.661 2°55.96 20.3479 0.065786 0.348724 -1.000568
2010-05-20 06:20:33 51°13.661 2°55.96 20.348 0.065786 0.34873 -1.000568
2010-05-20 06:20:38 51°13.661 2°55.96 20.3477 0.065786 0.34873 -1.035392
2010-05-20 06:20:43 51°13.661 2°55.96 20.3488 0.065786 0.348735 -1.000568
2010-05-20 06:20:48 51°13.661 2°55.96 20.3495 0.065786 0.348735 -1.000568
2010-05-20 06:20:53 51°13.661 2°55.96 20.3508 0.065786 0.348741 -1.000568
2010-05-20 06:20:58 51°13.661 2°55.96 20.3512 0.065786 0.348751 -1.000568
2010-05-20 06:21:03 51°13.661 2°55.96 20.3512 0.065786 0.348751 -1.000568
2010-05-20 06:21:08 51°13.661 2°55.96 20.351 0.065786 0.348751 -1.070216
2010-05-20 06:21:13 51°13.661 2°55.96 20.3496 0.065786 0.348757 -1.000568
2010-05-20 06:21:17 51°13.661 2°55.96 20.3477 0.065786 0.348757 -1.035392
2010-05-20 06:21:24 51°13.661 2°55.96 20.3469 0.065786 0.348757 -1.035392
2010-05-20 06:21:29 51°13.661 2°55.96 20.3457 0.065786 0.348751 -1.000568
2010-05-20 06:21:34 51°13.661 2°55.96 20.3484 0.065786 0.348751 -1.035392
2010-05-20 06:21:39 51°13.661 2°55.96 20.3448 0.065786 0.348757 -1.000568
2010-05-20 06:21:44 51°13.661 2°55.96 20.3436 0.065786 0.348757 -1.000568
2010-05-20 06:21:49 51°13.661 2°55.96 20.3411 0.065786 0.348762 -1.000568
2010-05-20 06:21:54 51°13.661 2°55.96 20.341 0.065786 0.348762 -1.000568
2010-05-20 06:21:59 51°13.661 2°55.96 20.3403 0.065786 0.348762 -1.035392
2010-05-20 06:22:04 51°13.661 2°55.96 20.3413 0.065786 0.348773 -1.035392
2010-05-20 06:22:09 51°13.662 2°55.96 20.3453 0.065786 0.348773 -1.000568
2010-05-20 06:22:14 51°13.662 2°55.96 20.3477 0.065786 0.348773 -1.000568
2010-05-20 06:22:19 51°13.662 2°55.96 20.3487 0.065786 0.348778 -1.000568
2010-05-20 06:22:24 51°13.662 2°55.96 20.3503 0.065786 0.348778 -1.000568
2010-05-20 06:22:29 51°13.662 2°55.96 20.3517 0.065786 0.348773 -1.035392
2010-05-20 06:22:34 51°13.662 2°55.96 20.3524 0.065786 0.348778 -1.035392
2010-05-20 06:22:39 51°13.662 2°55.96 20.3531 0.065786 0.348778 -1.000568
2010-05-20 06:22:44 51°13.662 2°55.96 20.3519 0.065786 0.348778 -1.000568
2010-05-20 06:22:49 51°13.662 2°55.96 20.3519 0.065786 0.348789 -1.000568
2010-05-20 06:22:54 51°13.662 2°55.96 20.3528 0.065786 0.348789 -1.000568
2010-05-20 06:22:59 51°13.662 2°55.96 20.3488 0.065786 0.348784 -1.000568
2010-05-20 06:23:04 51°13.662 2°55.96 20.349 0.065786 0.348789 -1.000568
2010-05-20 06:23:09 51°13.662 2°55.96 20.3495 0.065786 0.348789 -1.000568
2010-05-20 06:23:14 51°13.662 2°55.96 20.3503 0.065786 0.348794 -1.000568
2010-05-20 06:23:19 51°13.662 2°55.96 20.3529 0.065786 0.348794 -1.000568
2010-05-20 06:23:24 51°13.662 2°55.96 20.3552 0.065786 0.348794 -1.000568
2010-05-20 06:23:29 51°13.662 2°55.959 20.3588 0.065786 0.3488 -1.035392
2010-05-20 06:23:34 51°13.662 2°55.959 20.3699 0.065786 0.3488 -1.000568
2010-05-20 06:23:39 51°13.662 2°55.959 20.3738 0.065786 0.3488 -1.000568
2010-05-20 06:23:44 51°13.662 2°55.959 20.3762 0.065786 0.3488 -1.035392
2010-05-20 06:23:49 51°13.662 2°55.959 20.3784 0.065786 0.348805 -1.035392
2010-05-20 06:23:54 51°13.662 2°55.959 20.3786 0.065786 0.348805 -1.035392
2010-05-20 06:23:59 51°13.662 2°55.959 20.3789 0.065786 0.348805 -1.035392
2010-05-20 06:24:04 51°13.662 2°55.959 20.3762 0.065786 0.348805 -1.000568
2010-05-20 06:24:09 51°13.662 2°55.959 20.3769 0.065786 0.348805 -1.035392
2010-05-20 06:24:14 51°13.662 2°55.959 20.3733 0.065786 0.348811 -1.000568
2010-05-20 06:24:19 51°13.663 2°55.959 20.3723 0.065786 0.348816 -1.035392
2010-05-20 06:24:24 51°13.663 2°55.959 20.3694 0.065786 0.348816 -1.035392
2010-05-20 06:24:29 51°13.663 2°55.959 20.3654 0.065786 0.348821 -1.000568
2010-05-20 06:24:34 51°13.663 2°55.959 20.365 0.065786 0.348827 -1.000568
2010-05-20 06:24:39 51°13.663 2°55.959 20.3683 0.065786 0.348832 -1.000568
2010-05-20 06:24:44 51°13.663 2°55.959 20.3712 0.065786 0.348832 -1.035392
2010-05-20 06:24:49 51°13.663 2°55.959 20.3736 0.065786 0.348838 -1.000568
2010-05-20 06:24:54 51°13.663 2°55.959 20.375 0.065786 0.348838 -1.000568
2010-05-20 06:24:59 51°13.663 2°55.959 20.3737 0.065786 0.348838 -1.000568
2010-05-20 06:25:04 51°13.663 2°55.959 20.3729 0.065786 0.348838 -1.035392
2010-05-20 06:25:09 51°13.663 2°55.959 20.3725 0.065786 0.348843 -1.000568
2010-05-20 06:25:14 51°13.663 2°55.959 20.3757 0.065786 0.348832 -1.035392
2010-05-20 06:25:19 51°13.663 2°55.959 20.3791 0.065786 0.348843 -1.035392
2010-05-20 06:25:24 51°13.663 2°55.959 20.3936 0.065786 0.348843 -1.035392
2010-05-20 06:25:29 51°13.663 2°55.959 20.4052 0.065786 0.348848 -1.035392
2010-05-20 06:25:34 51°13.663 2°55.959 20.4093 0.065786 0.348854 -1.000568
2010-05-20 06:25:39 51°13.663 2°55.959 20.3947 0.065786 0.348854 -1.000568
2010-05-20 06:25:44 51°13.663 2°55.959 20.3907 0.065786 0.348854 -1.000568
2010-05-20 06:25:49 51°13.663 2°55.959 20.3909 0.065786 0.348854 -1.035392
2010-05-20 06:25:54 51°13.663 2°55.959 20.3893 0.065786 0.348854 -1.035392
2010-05-20 06:25:59 51°13.663 2°55.959 20.3874 0.065786 0.348859 -1.000568
2010-05-20 06:26:04 51°13.663 2°55.959 20.3854 0.065786 0.348859 -1.035392
2010-05-20 06:26:09 51°13.664 2°55.959 20.3818 0.065786 0.348865 -1.000568
2010-05-20 06:26:14 51°13.664 2°55.959 20.3824 0.065786 0.348875 -1.035392
2010-05-20 06:26:19 51°13.664 2°55.959 20.3817 0.065786 0.34887 -1.000568
2010-05-20 06:26:24 51°13.664 2°55.959 20.3826 0.065786 0.34887 -1.000568
2010-05-20 06:26:29 51°13.664 2°55.959 20.384 0.065786 0.34887 -1.035392
2010-05-20 06:26:34 51°13.664 2°55.959 20.3817 0.065786 0.348881 -1.035392
2010-05-20 06:26:39 51°13.664 2°55.959 20.3814 0.065786 0.348875 -1.000568
2010-05-20 06:26:44 51°13.664 2°55.959 20.3812 0.065786 0.348881 -1.000568
2010-05-20 06:26:49 51°13.664 2°55.959 20.383 0.065786 0.348886 -1.000568
2010-05-20 06:26:54 51°13.664 2°55.959 20.3829 0.065786 0.348886 -1.000568
2010-05-20 06:26:59 51°13.664 2°55.959 20.3838 0.065786 0.348886 -1.035392
2010-05-20 06:27:04 51°13.664 2°55.959 20.3839 0.065786 0.348886 -1.000568
2010-05-20 06:27:09 51°13.664 2°55.959 20.3844 0.065786 0.348891 -1.035392
2010-05-20 06:27:14 51°13.664 2°55.959 20.3858 0.065786 0.348891 -1.000568
2010-05-20 06:27:19 51°13.664 2°55.959 20.387 0.065786 0.348891 -1.035392
2010-05-20 06:27:24 51°13.664 2°55.959 20.3864 0.065786 0.348891 -1.035392
2010-05-20 06:27:29 51°13.664 2°55.959 20.3882 0.065786 0.348902 -1.035392
2010-05-20 06:27:34 51°13.664 2°55.959 20.3865 0.065786 0.348902 -1.000568
2010-05-20 06:27:39 51°13.664 2°55.959 20.3871 0.065786 0.348902 -1.000568
2010-05-20 06:27:44 51°13.664 2°55.959 20.3881 0.065786 0.348908 -1.000568
2010-05-20 06:27:49 51°13.664 2°55.959 20.3883 0.065786 0.348913 -1.000568
2010-05-20 06:27:54 51°13.664 2°55.959 20.3904 0.065786 0.348913 -1.000568
2010-05-20 06:27:59 51°13.664 2°55.959 20.3926 0.065786 0.348918 -1.000568
2010-05-20 06:28:04 51°13.664 2°55.959 20.394 0.065786 0.348913 -1.035392
2010-05-20 06:28:09 51°13.664 2°55.959 20.3953 0.065786 0.348913 -1.035392
2010-05-20 06:28:14 51°13.664 2°55.959 20.3959 0.065786 0.348918 -1.035392
2010-05-20 06:28:19 51°13.664 2°55.959 20.3951 0.065786 0.348918 -1.035392
2010-05-20 06:28:24 51°13.663 2°55.959 20.3963 0.065786 0.348918 -1.000568
2010-05-20 06:28:29 51°13.663 2°55.959 20.3965 0.065786 0.348924 -1.000568
2010-05-20 06:28:34 51°13.663 2°55.959 20.3958 0.065786 0.348929 -1.000568
2010-05-20 06:28:39 51°13.663 2°55.959 20.3939 0.065786 0.348929 -1.000568
2010-05-20 06:28:44 51°13.663 2°55.959 20.393 0.065786 0.348935 -1.000568
2010-05-20 06:28:49 51°13.663 2°55.959 20.3909 0.065786 0.348945 -1.000568
2010-05-20 06:28:54 51°13.663 2°55.959 20.3913 0.065786 0.348945 -1.000568
2010-05-20 06:28:59 51°13.663 2°55.959 20.3896 0.065786 0.34894 -1.035392
2010-05-20 06:29:04 51°13.663 2°55.959 20.3887 0.065786 0.348945 -1.000568
2010-05-20 06:29:09 51°13.663 2°55.96 20.3893 0.065786 0.34894 -1.035392
2010-05-20 06:29:14 51°13.663 2°55.96 20.3878 0.065786 0.348945 -1.000568
2010-05-20 06:29:19 51°13.663 2°55.96 20.3878 0.065682 0.348382 -1.000568
2010-05-20 06:29:24 51°13.663 2°55.96 20.3874 0.065682 0.348382 -1.000568
2010-05-20 06:29:29 51°13.663 2°55.96 20.3887 0.065786 0.348951 -1.000568
2010-05-20 06:29:34 51°13.663 2°55.96 20.3866 0.065786 0.348951 -1.000568
2010-05-20 06:29:39 51°13.663 2°55.96 20.382 0.065786 0.348956 -1.000568
2010-05-20 06:29:44 51°13.663 2°55.96 20.3817 0.065786 0.348962 -1.000568
2010-05-20 06:29:49 51°13.663 2°55.96 20.3829 0.065786 0.348962 -1.035392
2010-05-20 06:29:54 51°13.663 2°55.96 20.384 0.065786 0.348962 -1.035392
2010-05-20 06:29:59 51°13.663 2°55.96 20.3862 0.065786 0.348967 -1.000568
2010-05-20 06:30:04 51°13.663 2°55.96 20.3876 0.065786 0.348967 -1.000568
2010-05-20 06:30:09 51°13.663 2°55.96 20.3884 0.065786 0.348967 -1.035392
2010-05-20 06:30:14 51°13.663 2°55.96 20.3901 0.065786 0.348972 -1.000568
2010-05-20 06:30:19 51°13.663 2°55.96 20.3899 0.065786 0.348978 -1.000568
2010-05-20 06:30:24 51°13.663 2°55.96 20.3895 0.065786 0.348978 -1.000568
2010-05-20 06:30:29 51°13.663 2°55.96 20.3916 0.065682 0.348409 -1.000568
2010-05-20 06:30:34 51°13.663 2°55.96 20.3948 0.065786 0.348978 -1.035392
2010-05-20 06:30:39 51°13.663 2°55.96 20.3971 0.065786 0.348983 -1.000568
2010-05-20 06:30:44 51°13.663 2°55.96 20.3978 0.065786 0.348989 -1.000568
2010-05-20 06:30:49 51°13.663 2°55.96 20.3982 0.065786 0.348989 -1.000568
2010-05-20 06:30:54 51°13.663 2°55.96 20.3993 0.065786 0.348989 -1.000568
2010-05-20 06:30:59 51°13.663 2°55.96 20.3991 0.065786 0.348989 -1.000568
2010-05-20 06:31:04 51°13.663 2°55.96 20.3987 0.065786 0.348994 -1.000568
2010-05-20 06:31:09 51°13.663 2°55.96 20.3965 0.065786 0.348994 -1.035392
2010-05-20 06:31:14 51°13.663 2°55.96 20.3959 0.065786 0.348994 -1.035392
2010-05-20 06:31:19 51°13.663 2°55.96 20.393 0.065786 0.348994 -1.035392
2010-05-20 06:31:24 51°13.663 2°55.96 20.3942 0.065786 0.348999 -1.035392
2010-05-20 06:31:29 51°13.663 2°55.96 20.3927 0.065786 0.348999 -1.000568
2010-05-20 06:31:34 51°13.663 2°55.96 20.3934 0.065786 0.349005 -1.000568
2010-05-20 06:31:39 51°13.663 2°55.96 20.3954 0.065786 0.34901 -1.000568
2010-05-20 06:31:44 51°13.663 2°55.96 20.3937 0.065786 0.34901 -1.000568
2010-05-20 06:31:49 51°13.663 2°55.96 20.3947 0.065786 0.34901 -1.000568
2010-05-20 06:31:54 51°13.663 2°55.96 20.3951 0.065786 0.349016 -1.000568
2010-05-20 06:31:59 51°13.663 2°55.96 20.3976 0.065786 0.349016 -1.035392
2010-05-20 06:32:04 51°13.663 2°55.96 20.3979 0.065682 0.348442 -1.000568
2010-05-20 06:32:09 51°13.663 2°55.96 20.3992 0.065786 0.349021 -1.000568
2010-05-20 06:32:14 51°13.663 2°55.959 20.4011 0.065682 0.348452 -1.000568
2010-05-20 06:32:19 51°13.663 2°55.959 20.4021 0.065786 0.349026 -1.000568
2010-05-20 06:32:24 51°13.663 2°55.959 20.4034 0.065786 0.349026 -1.000568
2010-05-20 06:32:29 51°13.663 2°55.959 20.4054 0.065682 0.348458 -1.000568
2010-05-20 06:32:34 51°13.663 2°55.959 20.4067 0.065786 0.349026 -1.035392
2010-05-20 06:32:39 51°13.663 2°55.959 20.4044 0.065786 0.349032 -1.035392
2010-05-20 06:32:44 51°13.663 2°55.959 20.4048 0.065786 0.349032 -1.035392
2010-05-20 06:32:49 51°13.663 2°55.959 20.4034 0.065786 0.349037 -1.000568
2010-05-20 06:32:54 51°13.663 2°55.959 20.4037 0.065786 0.349037 -1.000568
2010-05-20 06:32:59 51°13.663 2°55.959 20.4062 0.065786 0.349037 -1.000568
2010-05-20 06:33:04 51°13.663 2°55.959 20.4067 0.065786 0.349037 -1.000568
2010-05-20 06:33:09 51°13.663 2°55.959 20.4079 0.065786 0.349043 -1.035392
2010-05-20 06:33:14 51°13.663 2°55.959 20.408 0.065786 0.349048 -1.000568
2010-05-20 06:33:19 51°13.663 2°55.959 20.4068 0.065786 0.349048 -1.035392
2010-05-20 06:33:24 51°13.663 2°55.959 20.4058 0.065786 0.349048 -1.035392
2010-05-20 06:33:29 51°13.663 2°55.959 20.4071 0.065786 0.349059 -1.000568
2010-05-20 06:33:34 51°13.663 2°55.959 20.4055 0.065682 0.348485 -1.000568
2010-05-20 06:33:39 51°13.663 2°55.959 20.4078 0.065786 0.349053 -1.000568
2010-05-20 06:33:44 51°13.663 2°55.959 20.4088 0.065682 0.34849 -1.000568
2010-05-20 06:33:49 51°13.663 2°55.959 20.4112 0.065682 0.34849 -1.000568
2010-05-20 06:33:54 51°13.663 2°55.959 20.4113 0.065786 0.349064 -1.035392
2010-05-20 06:33:59 51°13.663 2°55.959 20.4121 0.065786 0.34907 -1.000568
2010-05-20 06:34:04 51°13.663 2°55.959 20.4123 0.065786 0.349064 -1.000568
2010-05-20 06:34:09 51°13.663 2°55.959 20.4128 0.065682 0.348501 -1.035392
2010-05-20 06:34:14 51°13.663 2°55.959 20.4146 0.065682 0.348501 -1.000568
2010-05-20 06:34:19 51°13.663 2°55.959 20.4156 0.065682 0.348506 -1.035392
2010-05-20 06:34:24 51°13.663 2°55.959 20.4126 0.065682 0.348506 -1.035392
2010-05-20 06:34:29 51°13.663 2°55.959 20.4151 0.065682 0.348512 -1.035392
2010-05-20 06:34:34 51°13.663 2°55.959 20.4163 0.065682 0.348512 -1.035392
2010-05-20 06:34:39 51°13.663 2°55.959 20.4173 0.065682 0.348517 -1.000568
2010-05-20 06:34:44 51°13.663 2°55.959 20.421 0.065682 0.348517 -1.000568
2010-05-20 06:34:49 51°13.663 2°55.959 20.4214 0.065682 0.348517 -1.000568
2010-05-20 06:34:54 51°13.663 2°55.959 20.4261 0.065682 0.348517 -1.000568
2010-05-20 06:34:59 51°13.663 2°55.959 20.4316 0.065682 0.348522 -1.035392
2010-05-20 06:35:04 51°13.663 2°55.959 20.4291 0.065786 0.349097 -1.035392
2010-05-20 06:35:09 51°13.663 2°55.959 20.4281 0.065682 0.348528 -1.035392
2010-05-20 06:35:14 51°13.663 2°55.959 20.4279 0.065682 0.348528 -1.000568
2010-05-20 06:35:19 51°13.663 2°55.959 20.4277 0.065682 0.348533 -1.035392
2010-05-20 06:35:24 51°13.663 2°55.959 20.4274 0.065682 0.348533 -1.035392
2010-05-20 06:35:29 51°13.663 2°55.959 20.4273 0.065682 0.348533 -1.035392
2010-05-20 06:35:34 51°13.663 2°55.959 20.4269 0.065682 0.348533 -1.070216
2010-05-20 06:35:39 51°13.663 2°55.959 20.4272 0.065682 0.348533 -0.965744
2010-05-20 06:35:44 51°13.663 2°55.959 20.4269 0.065786 0.349107 -1.000568
2010-05-20 06:35:49 51°13.663 2°55.959 20.4279 0.065682 0.348549 -1.000568
2010-05-20 06:35:54 51°13.663 2°55.959 20.4283 0.065682 0.348549 -1.000568
2010-05-20 06:35:59 51°13.663 2°55.959 20.4289 0.065682 0.348544 -1.035392
2010-05-20 06:36:04 51°13.663 2°55.959 20.4297 0.065682 0.348549 -1.035392
2010-05-20 06:36:09 51°13.663 2°55.959 20.4254 0.065682 0.348555 -1.000568
2010-05-20 06:36:14 51°13.663 2°55.959 20.4246 0.065786 0.349124 -1.000568
2010-05-20 06:36:19 51°13.663 2°55.959 20.4203 0.065682 0.34856 -1.000568
2010-05-20 06:36:24 51°13.663 2°55.959 20.4214 0.065682 0.34856 -1.000568
2010-05-20 06:36:29 51°13.663 2°55.959 20.4203 0.065682 0.34856 -1.035392
2010-05-20 06:36:34 51°13.663 2°55.959 20.4202 0.065682 0.348565 -1.035392
2010-05-20 06:36:39 51°13.663 2°55.959 20.4169 0.065682 0.34856 -1.000568
2010-05-20 06:36:44 51°13.663 2°55.959 20.4163 0.065682 0.348565 -1.000568
2010-05-20 06:36:49 51°13.663 2°55.959 20.414 0.065682 0.348576 -1.000568
2010-05-20 06:36:54 51°13.663 2°55.959 20.4133 0.065682 0.348576 -1.000568
2010-05-20 06:36:59 51°13.663 2°55.959 20.4157 0.065682 0.348571 -1.000568
2010-05-20 06:37:04 51°13.663 2°55.959 20.4164 0.065682 0.348576 -1.000568
2010-05-20 06:37:09 51°13.663 2°55.959 20.416 0.065682 0.348582 -1.035392
2010-05-20 06:37:14 51°13.663 2°55.959 20.421 0.065682 0.348582 -1.000568
2010-05-20 06:37:19 51°13.663 2°55.959 20.4208 0.065682 0.348587 -1.000568
2010-05-20 06:37:24 51°13.663 2°55.959 20.4219 0.065682 0.348587 -1.000568
2010-05-20 06:37:29 51°13.663 2°55.959 20.419 0.065682 0.348587 -1.000568
2010-05-20 06:37:34 51°13.663 2°55.959 20.4212 0.065682 0.348587 -1.035392
2010-05-20 06:37:39 51°13.663 2°55.959 20.4226 0.065682 0.348587 -1.035392
2010-05-20 06:37:44 51°13.663 2°55.959 20.4244 0.065682 0.348592 -1.000568
2010-05-20 06:37:49 51°13.663 2°55.959 20.4261 0.065682 0.348598 -1.035392
2010-05-20 06:37:54 51°13.663 2°55.959 20.4277 0.065682 0.348598 -1.035392
2010-05-20 06:37:59 51°13.663 2°55.959 20.4272 0.065682 0.348603 -1.000568
2010-05-20 06:38:04 51°13.663 2°55.959 20.4268 0.065682 0.348603 -1.035392
2010-05-20 06:38:09 51°13.662 2°55.959 20.4294 0.065682 0.348609 -1.000568
2010-05-20 06:38:14 51°13.662 2°55.959 20.4295 0.065682 0.348609 -0.965744
2010-05-20 06:38:19 51°13.662 2°55.959 20.4272 0.065682 0.348609 -1.035392
2010-05-20 06:38:24 51°13.662 2°55.959 20.4234 0.065682 0.348609 -1.035392
2010-05-20 06:38:29 51°13.662 2°55.959 20.4261 0.065682 0.348614 -0.965744
2010-05-20 06:38:34 51°13.662 2°55.959 20.4261 0.065682 0.348614 -1.000568
2010-05-20 06:38:39 51°13.662 2°55.959 20.4255 0.065682 0.348614 -1.035392
2010-05-20 06:38:44 51°13.662 2°55.959 20.4256 0.065682 0.348625 -1.000568
2010-05-20 06:38:49 51°13.662 2°55.959 20.4255 0.065682 0.348625 -1.035392
2010-05-20 06:38:54 51°13.662 2°55.959 20.4266 0.065682 0.348625 -1.035392
2010-05-20 06:38:59 51°13.662 2°55.959 20.4237 0.065682 0.348625 -1.035392
2010-05-20 06:39:04 51°13.662 2°55.959 20.4258 0.065682 0.34863 -1.035392
2010-05-20 06:39:09 51°13.662 2°55.959 20.4273 0.065682 0.34863 -1.000568
2010-05-20 06:39:14 51°13.662 2°55.959 20.4289 0.065682 0.34863 -1.000568
2010-05-20 06:39:19 51°13.662 2°55.959 20.429 0.065682 0.348636 -1.000568
2010-05-20 06:39:24 51°13.662 2°55.959 20.4286 0.065682 0.348636 -1.000568
2010-05-20 06:39:29 51°13.662 2°55.959 20.4295 0.065682 0.348636 -1.035392
2010-05-20 06:39:34 51°13.662 2°55.959 20.428 0.065682 0.348641 -1.000568
2010-05-20 06:39:39 51°13.662 2°55.959 20.4249 0.065682 0.348646 -1.035392
2010-05-20 06:39:44 51°13.662 2°55.959 20.4259 0.065682 0.348652 -0.965744
2010-05-20 06:39:49 51°13.662 2°55.959 20.427 0.065682 0.348646 -1.035392
2010-05-20 06:39:54 51°13.662 2°55.959 20.4282 0.065682 0.348646 -1.035392
2010-05-20 06:39:59 51°13.662 2°55.959 20.4296 0.065682 0.348646 -1.000568
2010-05-20 06:40:04 51°13.662 2°55.959 20.4314 0.065682 0.348652 -1.035392
2010-05-20 06:40:09 51°13.662 2°55.959 20.4308 0.065682 0.348657 -1.000568
2010-05-20 06:40:14 51°13.662 2°55.959 20.4297 0.065682 0.348657 -1.035392
2010-05-20 06:40:19 51°13.662 2°55.959 20.4307 0.065682 0.348663 -1.000568
2010-05-20 06:40:24 51°13.662 2°55.959 20.432 0.065682 0.348663 -1.000568
2010-05-20 06:40:29 51°13.662 2°55.959 20.4329 0.065682 0.348663 -1.000568
2010-05-20 06:40:34 51°13.661 2°55.959 20.4322 0.065682 0.348668 -1.035392
2010-05-20 06:40:39 51°13.661 2°55.959 20.4324 0.065682 0.348668 -1.000568
2010-05-20 06:40:44 51°13.661 2°55.959 20.4324 0.065682 0.348668 -1.070216
2010-05-20 06:40:49 51°13.661 2°55.959 20.4346 0.065682 0.348668 -1.035392
2010-05-20 06:40:54 51°13.661 2°55.959 20.4378 0.065682 0.348668 -1.035392
2010-05-20 06:40:59 51°13.661 2°55.959 20.4394 0.065682 0.348673 -1.000568
2010-05-20 06:41:04 51°13.661 2°55.959 20.4399 0.065682 0.348679 -1.000568
2010-05-20 06:41:09 51°13.661 2°55.959 20.4392 0.065682 0.348684 -1.035392
2010-05-20 06:41:14 51°13.661 2°55.959 20.4408 0.065682 0.348684 -1.000568
2010-05-20 06:41:19 51°13.661 2°55.959 20.4428 0.065682 0.348684 -1.000568
2010-05-20 06:41:24 51°13.661 2°55.959 20.4431 0.065682 0.348684 -1.000568
2010-05-20 06:41:29 51°13.661 2°55.958 20.4481 0.065682 0.348684 -1.000568
2010-05-20 06:41:34 51°13.661 2°55.959 20.4515 0.065682 0.34869 -1.000568
2010-05-20 06:41:39 51°13.661 2°55.959 20.4528 0.065682 0.348695 -1.035392
2010-05-20 06:41:44 51°13.661 2°55.959 20.4504 0.065682 0.348695 -1.035392
2010-05-20 06:41:49 51°13.661 2°55.959 20.4511 0.065682 0.348695 -1.035392
2010-05-20 06:41:54 51°13.661 2°55.959 20.4516 0.065682 0.348695 -1.000568
2010-05-20 06:41:59 51°13.661 2°55.959 20.4528 0.065682 0.3487 -1.035392
2010-05-20 06:42:04 51°13.661 2°55.959 20.4522 0.065682 0.348706 -1.035392
2010-05-20 06:42:09 51°13.661 2°55.959 20.4521 0.065682 0.3487 -1.035392
2010-05-20 06:42:14 51°13.661 2°55.959 20.4504 0.065682 0.348706 -1.000568
2010-05-20 06:42:19 51°13.661 2°55.958 20.4469 0.065682 0.348706 -1.000568
2010-05-20 06:42:24 51°13.661 2°55.958 20.4454 0.065682 0.348706 -1.000568
2010-05-20 06:42:29 51°13.661 2°55.958 20.4457 0.065682 0.348716 -1.000568
2010-05-20 06:42:34 51°13.661 2°55.958 20.4439 0.065682 0.348711 -1.000568
2010-05-20 06:42:39 51°13.662 2°55.958 20.4464 0.065682 0.348722 -1.035392
2010-05-20 06:42:44 51°13.662 2°55.958 20.4457 0.065682 0.348722 -1.035392
2010-05-20 06:42:49 51°13.662 2°55.958 20.4415 0.065682 0.348722 -1.000568
2010-05-20 06:42:54 51°13.662 2°55.958 20.4391 0.065682 0.348722 -1.000568
2010-05-20 06:42:59 51°13.662 2°55.958 20.4377 0.065682 0.348722 -1.000568
2010-05-20 06:43:04 51°13.662 2°55.958 20.4378 0.065682 0.348722 -1.000568
2010-05-20 06:43:09 51°13.662 2°55.958 20.4388 0.065682 0.348727 -1.000568
2010-05-20 06:43:14 51°13.662 2°55.958 20.4393 0.065682 0.348733 -1.035392
2010-05-20 06:43:19 51°13.662 2°55.958 20.4387 0.065682 0.348733 -1.000568
2010-05-20 06:43:24 51°13.662 2°55.958 20.4376 0.065682 0.348733 -1.000568
2010-05-20 06:43:28 51°13.662 2°55.958 20.4401 0.065682 0.348733 -1.000568
2010-05-20 06:43:33 51°13.662 2°55.958 20.4411 0.065682 0.348743 -1.000568
2010-05-20 06:43:38 51°13.662 2°55.958 20.4414 0.065682 0.348743 -1.035392
2010-05-20 06:43:44 51°13.662 2°55.958 20.44 0.065682 0.348743 -1.000568
2010-05-20 06:43:49 51°13.662 2°55.958 20.442 0.065682 0.348754 -1.000568
2010-05-20 06:43:54 51°13.662 2°55.959 20.4424 0.065682 0.348754 -1.000568
2010-05-20 06:43:58 51°13.662 2°55.959 20.442 0.065682 0.34876 -1.035392
2010-05-20 06:44:03 51°13.662 2°55.959 20.4411 0.065682 0.348754 -1.035392
2010-05-20 06:44:09 51°13.662 2°55.959 20.4422 0.065682 0.348754 -1.035392
2010-05-20 06:44:14 51°13.662 2°55.959 20.4437 0.065682 0.34876 -1.000568
2010-05-20 06:44:18 51°13.662 2°55.959 20.4441 0.065682 0.34876 -1.000568
2010-05-20 06:44:23 51°13.662 2°55.958 20.4459 0.065682 0.34876 -1.000568
2010-05-20 06:44:29 51°13.662 2°55.958 20.4469 0.065682 0.348765 -1.000568
2010-05-20 06:44:34 51°13.662 2°55.958 20.4462 0.065682 0.348765 -1.035392
2010-05-20 06:44:39 51°13.662 2°55.958 20.4451 0.065682 0.34877 -1.000568
2010-05-20 06:44:44 51°13.662 2°55.959 20.445 0.065682 0.34877 -1.000568
2010-05-20 06:44:49 51°13.662 2°55.959 20.4479 0.065682 0.34877 -1.000568
2010-05-20 06:44:54 51°13.662 2°55.959 20.4483 0.065682 0.348776 -1.035392
2010-05-20 06:44:59 51°13.662 2°55.959 20.4497 0.065682 0.348781 -1.035392
2010-05-20 06:45:04 51°13.662 2°55.959 20.4496 0.065682 0.348781 -1.000568
2010-05-20 06:45:09 51°13.662 2°55.959 20.4503 0.065682 0.348781 -1.035392
2010-05-20 06:45:14 51°13.662 2°55.959 20.451 0.065682 0.348787 -1.035392
2010-05-20 06:45:19 51°13.662 2°55.959 20.4511 0.065682 0.348792 -1.035392
2010-05-20 06:45:24 51°13.662 2°55.959 20.4508 0.065682 0.348792 -1.035392
2010-05-20 06:45:29 51°13.662 2°55.959 20.4493 0.065682 0.348792 -1.035392
2010-05-20 06:45:34 51°13.662 2°55.959 20.447 0.065682 0.348787 -1.035392
2010-05-20 06:45:39 51°13.662 2°55.959 20.4457 0.065682 0.348792 -1.000568
2010-05-20 06:45:44 51°13.662 2°55.959 20.4466 0.065682 0.348797 -1.000568
2010-05-20 06:45:49 51°13.662 2°55.959 20.4484 0.065682 0.348797 -1.000568
2010-05-20 06:45:54 51°13.662 2°55.959 20.45 0.065682 0.348797 -1.000568
2010-05-20 06:45:59 51°13.662 2°55.959 20.4528 0.065682 0.348797 -1.000568
2010-05-20 06:46:04 51°13.662 2°55.959 20.4554 0.065682 0.348808 -1.000568
2010-05-20 06:46:09 51°13.662 2°55.959 20.457 0.065682 0.348814 -1.000568
2010-05-20 06:46:14 51°13.662 2°55.959 20.4557 0.065682 0.348814 -1.000568
2010-05-20 06:46:19 51°13.662 2°55.959 20.4557 0.065682 0.348814 -1.000568
2010-05-20 06:46:24 51°13.662 2°55.959 20.4536 0.065682 0.348814 -1.035392
2010-05-20 06:46:29 51°13.662 2°55.959 20.4528 0.065682 0.348814 -1.035392
2010-05-20 06:46:34 51°13.662 2°55.959 20.45 0.065682 0.348819 -1.000568
2010-05-20 06:46:39 51°13.662 2°55.959 20.4512 0.065682 0.348819 -1.000568
2010-05-20 06:46:44 51°13.663 2°55.959 20.4503 0.065682 0.348824 -1.035392
2010-05-20 06:46:49 51°13.663 2°55.959 20.4517 0.065682 0.348824 -1.000568
2010-05-20 06:46:54 51°13.663 2°55.959 20.4514 0.065682 0.348824 -1.000568
2010-05-20 06:46:59 51°13.663 2°55.959 20.4509 0.065682 0.34883 -1.000568
2010-05-20 06:47:04 51°13.663 2°55.959 20.4517 0.065682 0.348835 -0.965744
2010-05-20 06:47:09 51°13.663 2°55.959 20.4535 0.065682 0.348835 -1.000568
2010-05-20 06:47:14 51°13.663 2°55.959 20.4551 0.065682 0.348841 -1.035392
2010-05-20 06:47:19 51°13.663 2°55.959 20.4569 0.065682 0.348846 -1.035392
2010-05-20 06:47:24 51°13.663 2°55.959 20.4588 0.065682 0.348846 -1.035392
2010-05-20 06:47:29 51°13.663 2°55.959 20.4579 0.065682 0.348846 -1.035392
2010-05-20 06:47:34 51°13.663 2°55.959 20.4595 0.065682 0.348846 -1.035392
2010-05-20 06:47:39 51°13.663 2°55.959 20.4599 0.065682 0.348841 -1.000568
2010-05-20 06:47:44 51°13.663 2°55.959 20.4572 0.065682 0.348851 -1.035392
2010-05-20 06:47:49 51°13.663 2°55.959 20.459 0.065682 0.348851 -1.035392
2010-05-20 06:47:54 51°13.663 2°55.959 20.4602 0.065682 0.348851 -1.035392
2010-05-20 06:47:59 51°13.663 2°55.959 20.4627 0.065682 0.348857 -1.035392
2010-05-20 06:48:04 51°13.663 2°55.959 20.4641 0.065682 0.348862 -1.000568
2010-05-20 06:48:09 51°13.663 2°55.959 20.462 0.065682 0.348862 -1.000568
2010-05-20 06:48:14 51°13.663 2°55.959 20.4637 0.065682 0.348857 -1.000568
2010-05-20 06:48:19 51°13.663 2°55.959 20.4644 0.065682 0.348868 -1.035392
2010-05-20 06:48:24 51°13.663 2°55.959 20.4613 0.065682 0.348868 -1.035392
2010-05-20 06:48:29 51°13.663 2°55.959 20.4598 0.065682 0.348873 -1.000568
2010-05-20 06:48:34 51°13.663 2°55.959 20.4607 0.065682 0.348873 -1.000568
2010-05-20 06:48:39 51°13.663 2°55.959 20.4624 0.065682 0.348873 -1.035392
2010-05-20 06:48:44 51°13.663 2°55.959 20.4626 0.065682 0.348878 -1.035392
2010-05-20 06:48:49 51°13.663 2°55.959 20.4656 0.065682 0.348878 -1.035392
2010-05-20 06:48:54 51°13.663 2°55.959 20.4621 0.065682 0.348878 -1.035392
2010-05-20 06:48:59 51°13.663 2°55.959 20.4603 0.065682 0.348884 -1.000568
2010-05-20 06:49:04 51°13.663 2°55.959 20.4621 0.065682 0.348884 -1.000568
2010-05-20 06:49:09 51°13.663 2°55.959 20.4614 0.065682 0.348889 -1.000568
2010-05-20 06:49:14 51°13.663 2°55.959 20.4606 0.065682 0.348889 -1.035392
2010-05-20 06:49:19 51°13.663 2°55.959 20.4613 0.065682 0.348895 -1.035392
2010-05-20 06:49:24 51°13.663 2°55.959 20.4588 0.065682 0.348895 -1.035392
2010-05-20 06:49:29 51°13.663 2°55.959 20.4583 0.065682 0.348889 -1.000568
2010-05-20 06:49:34 51°13.663 2°55.959 20.4583 0.065682 0.348895 -1.035392
2010-05-20 06:49:39 51°13.663 2°55.959 20.4608 0.065682 0.3489 -1.000568
2010-05-20 06:49:44 51°13.663 2°55.959 20.462 0.065682 0.348906 -1.035392
2010-05-20 06:49:49 51°13.663 2°55.959 20.4634 0.065682 0.348906 -1.000568
2010-05-20 06:49:54 51°13.663 2°55.959 20.4622 0.065682 0.348906 -1.000568
2010-05-20 06:49:59 51°13.663 2°55.959 20.4621 0.065682 0.348911 -1.000568
2010-05-20 06:50:04 51°13.663 2°55.959 20.4651 0.065682 0.348916 -1.000568
2010-05-20 06:50:09 51°13.663 2°55.959 20.4653 0.065682 0.348916 -1.000568
2010-05-20 06:50:14 51°13.663 2°55.959 20.4658 0.065682 0.348916 -1.035392
2010-05-20 06:50:19 51°13.663 2°55.959 20.4658 0.065682 0.348916 -1.035392
2010-05-20 06:50:24 51°13.663 2°55.959 20.4653 0.065682 0.348916 -1.035392
2010-05-20 06:50:29 51°13.663 2°55.959 20.4667 0.065682 0.348922 -1.000568
2010-05-20 06:50:34 51°13.663 2°55.959 20.4664 0.065682 0.348927 -1.000568
2010-05-20 06:50:39 51°13.663 2°55.959 20.4659 0.065682 0.348927 -1.035392
2010-05-20 06:50:44 51°13.663 2°55.959 20.4639 0.065682 0.348927 -1.035392
2010-05-20 06:50:49 51°13.663 2°55.959 20.4611 0.065682 0.348927 -1.035392
2010-05-20 06:50:54 51°13.663 2°55.959 20.4615 0.065682 0.348927 -1.035392
2010-05-20 06:50:59 51°13.663 2°55.959 20.4618 0.065682 0.348933 -1.000568
2010-05-20 06:51:04 51°13.663 2°55.959 20.4618 0.065682 0.348938 -1.035392
2010-05-20 06:51:09 51°13.663 2°55.959 20.4619 0.065682 0.348938 -1.035392
2010-05-20 06:51:14 51°13.663 2°55.959 20.4629 0.065682 0.348938 -1.000568
2010-05-20 06:51:19 51°13.663 2°55.959 20.4627 0.065682 0.348938 -1.000568
2010-05-20 06:51:24 51°13.663 2°55.959 20.4624 0.065682 0.348938 -1.000568
2010-05-20 06:51:29 51°13.663 2°55.959 20.4615 0.065682 0.348943 -1.000568
2010-05-20 06:51:34 51°13.663 2°55.959 20.4627 0.065682 0.348943 -0.965744
2010-05-20 06:51:39 51°13.663 2°55.959 20.4608 0.065682 0.348954 -1.035392
2010-05-20 06:51:44 51°13.663 2°55.959 20.4612 0.065682 0.348949 -1.035392
2010-05-20 06:51:49 51°13.663 2°55.959 20.4633 0.065682 0.34896 -1.000568
2010-05-20 06:51:54 51°13.663 2°55.959 20.4639 0.065682 0.34896 -1.000568
2010-05-20 06:51:59 51°13.663 2°55.959 20.4628 0.065682 0.34896 -1.035392
2010-05-20 06:52:04 51°13.663 2°55.959 20.4637 0.065682 0.348965 -1.000568
2010-05-20 06:52:09 51°13.663 2°55.959 20.4667 0.065682 0.348965 -1.035392
2010-05-20 06:52:14 51°13.663 2°55.959 20.4657 0.065682 0.34897 -1.000568
2010-05-20 06:52:19 51°13.663 2°55.959 20.4691 0.065682 0.34897 -1.035392
2010-05-20 06:52:24 51°13.663 2°55.96 20.4652 0.065682 0.34897 -1.035392
2010-05-20 06:52:29 51°13.663 2°55.96 20.4655 0.065682 0.34897 -1.000568
2010-05-20 06:52:34 51°13.663 2°55.96 20.4658 0.065682 0.34897 -1.035392
2010-05-20 06:52:39 51°13.663 2°55.96 20.4631 0.065682 0.34897 -1.000568
2010-05-20 06:52:44 51°13.663 2°55.96 20.4611 0.065682 0.348976 -1.035392
2010-05-20 06:52:49 51°13.663 2°55.96 20.454 0.065682 0.348976 -1.035392
2010-05-20 06:52:54 51°13.663 2°55.96 20.4537 0.065682 0.348976 -1.035392
2010-05-20 06:52:59 51°13.663 2°55.96 20.4543 0.065682 0.348981 -1.000568
2010-05-20 06:53:04 51°13.663 2°55.96 20.4573 0.065682 0.348981 -1.000568
2010-05-20 06:53:09 51°13.663 2°55.96 20.4585 0.065682 0.348987 -1.000568
2010-05-20 06:53:14 51°13.663 2°55.96 20.4597 0.065682 0.348992 -1.035392
2010-05-20 06:53:19 51°13.663 2°55.96 20.4596 0.065682 0.348992 -1.035392
2010-05-20 06:53:24 51°13.663 2°55.96 20.459 0.065682 0.348992 -1.035392
2010-05-20 06:53:29 51°13.663 2°55.96 20.4585 0.065682 0.348992 -1.000568
2010-05-20 06:53:34 51°13.663 2°55.96 20.4596 0.065682 0.348997 -1.000568
2010-05-20 06:53:39 51°13.663 2°55.96 20.4577 0.065682 0.349003 -1.035392
2010-05-20 06:53:44 51°13.663 2°55.96 20.4574 0.065682 0.349003 -1.035392
2010-05-20 06:53:49 51°13.663 2°55.96 20.4554 0.065682 0.349003 -1.035392
2010-05-20 06:53:54 51°13.663 2°55.96 20.4492 0.065682 0.349003 -1.035392
2010-05-20 06:53:59 51°13.663 2°55.96 20.4503 0.065682 0.349008 -1.000568
2010-05-20 06:54:04 51°13.663 2°55.96 20.454 0.065682 0.349008 -1.000568
2010-05-20 06:54:09 51°13.663 2°55.96 20.4529 0.065682 0.349008 -1.035392
2010-05-20 06:54:14 51°13.663 2°55.96 20.4544 0.065682 0.349014 -1.035392
2010-05-20 06:54:19 51°13.663 2°55.96 20.4581 0.065682 0.349014 -1.035392
2010-05-20 06:54:24 51°13.663 2°55.96 20.4593 0.065682 0.349014 -1.035392
2010-05-20 06:54:29 51°13.663 2°55.96 20.4617 0.065682 0.349014 -1.000568
2010-05-20 06:54:34 51°13.663 2°55.96 20.4614 0.065682 0.349019 -1.000568
2010-05-20 06:54:39 51°13.663 2°55.96 20.4626 0.065682 0.349024 -1.000568
2010-05-20 06:54:44 51°13.663 2°55.96 20.464 0.065682 0.349024 -1.035392
2010-05-20 06:54:49 51°13.663 2°55.96 20.4644 0.065682 0.349024 -1.000568
2010-05-20 06:54:54 51°13.663 2°55.96 20.4634 0.065682 0.349024 -1.000568
2010-05-20 06:54:59 51°13.663 2°55.96 20.4625 0.065682 0.349024 -1.000568
2010-05-20 06:55:04 51°13.663 2°55.96 20.4617 0.065682 0.34903 -1.000568
2010-05-20 06:55:09 51°13.663 2°55.96 20.4576 0.065682 0.34903 -1.000568
2010-05-20 06:55:14 51°13.663 2°55.96 20.4539 0.065682 0.349035 -1.035392
2010-05-20 06:55:19 51°13.663 2°55.96 20.4538 0.065682 0.349035 -1.000568
2010-05-20 06:55:24 51°13.663 2°55.96 20.4531 0.065682 0.349035 -1.000568
2010-05-20 06:55:29 51°13.663 2°55.96 20.4523 0.065682 0.349041 -1.035392
2010-05-20 06:55:34 51°13.663 2°55.959 20.4511 0.065682 0.349041 -1.000568
2010-05-20 06:55:39 51°13.663 2°55.959 20.45 0.065682 0.349046 -1.000568
2010-05-20 06:55:44 51°13.663 2°55.959 20.449 0.065682 0.349051 -1.035392
2010-05-20 06:55:49 51°13.663 2°55.959 20.4493 0.065682 0.349051 -1.035392
2010-05-20 06:55:54 51°13.663 2°55.959 20.4479 0.065682 0.349051 -1.035392
2010-05-20 06:55:59 51°13.663 2°55.959 20.4445 0.065682 0.349051 -1.000568
2010-05-20 06:56:04 51°13.663 2°55.959 20.4433 0.065682 0.349046 -1.000568
2010-05-20 06:56:09 51°13.664 2°55.959 20.4456 0.065682 0.349041 -1.035392
2010-05-20 06:56:14 51°13.664 2°55.959 20.4445 0.065682 0.349041 -1.035392
2010-05-20 06:56:19 51°13.664 2°55.959 20.4447 0.065682 0.349041 -1.035392
2010-05-20 06:56:24 51°13.664 2°55.959 20.4473 0.065682 0.349046 -1.035392
2010-05-20 06:56:29 51°13.664 2°55.959 20.4487 0.065682 0.349057 -1.035392
2010-05-20 06:56:34 51°13.664 2°55.959 20.4488 0.065682 0.349057 -1.000568
2010-05-20 06:56:39 51°13.664 2°55.959 20.4493 0.065682 0.349068 -1.000568
2010-05-20 06:56:44 51°13.664 2°55.959 20.4499 0.065682 0.349073 -1.035392
2010-05-20 06:56:49 51°13.664 2°55.959 20.451 0.065682 0.349079 -1.000568
2010-05-20 06:56:54 51°13.664 2°55.959 20.4508 0.065682 0.349079 -1.000568
2010-05-20 06:56:59 51°13.664 2°55.959 20.4517 0.065682 0.349084 -1.000568
2010-05-20 06:57:04 51°13.664 2°55.959 20.4502 0.065682 0.349084 -1.000568
2010-05-20 06:57:09 51°13.664 2°55.959 20.4467 0.065682 0.349084 -1.000568
2010-05-20 06:57:14 51°13.664 2°55.959 20.4453 0.065682 0.349084 -1.000568
2010-05-20 06:57:19 51°13.664 2°55.959 20.4453 0.065682 0.349084 -1.035392
2010-05-20 06:57:24 51°13.664 2°55.959 20.446 0.065682 0.349084 -1.035392
2010-05-20 06:57:29 51°13.664 2°55.959 20.4468 0.065682 0.349089 -1.000568
2010-05-20 06:57:34 51°13.664 2°55.959 20.4493 0.065682 0.349089 -1.000568
2010-05-20 06:57:39 51°13.664 2°55.959 20.4524 0.065682 0.349089 -1.035392
2010-05-20 06:57:44 51°13.664 2°55.959 20.4548 0.065682 0.349095 -1.035392
2010-05-20 06:57:49 51°13.664 2°55.959 20.4552 0.065682 0.3491 -1.000568
2010-05-20 06:57:54 51°13.664 2°55.959 20.4567 0.065682 0.3491 -1.000568
2010-05-20 06:57:59 51°13.665 2°55.959 20.457 0.065682 0.3491 -1.000568
2010-05-20 06:58:04 51°13.665 2°55.959 20.4574 0.065682 0.3491 -1.000568
2010-05-20 06:58:09 51°13.665 2°55.959 20.4586 0.065578 0.348536 -1.000568
2010-05-20 06:58:14 51°13.665 2°55.959 20.4591 0.065682 0.349106 -1.000568
2010-05-20 06:58:19 51°13.665 2°55.959 20.4541 0.065682 0.349111 -1.000568
2010-05-20 06:58:24 51°13.665 2°55.959 20.4527 0.065682 0.349111 -1.000568
2010-05-20 06:58:29 51°13.665 2°55.959 20.454 0.065682 0.349116 -1.070216
2010-05-20 06:58:34 51°13.665 2°55.959 20.4518 0.065682 0.349111 -1.000568
2010-05-20 06:58:39 51°13.665 2°55.959 20.4537 0.065682 0.349111 -1.035392
2010-05-20 06:58:44 51°13.665 2°55.959 20.4536 0.065578 0.348547 -1.035392
2010-05-20 06:58:49 51°13.665 2°55.959 20.4526 0.065578 0.348547 -1.035392
2010-05-20 06:58:54 51°13.665 2°55.959 20.4536 0.065578 0.348547 -1.035392
2010-05-20 06:58:59 51°13.665 2°55.959 20.4552 0.065682 0.349122 -1.000568
2010-05-20 06:59:04 51°13.665 2°55.959 20.457 0.065682 0.349127 -1.035392
2010-05-20 06:59:09 51°13.665 2°55.959 20.4543 0.065682 0.349127 -1.000568
2010-05-20 06:59:14 51°13.665 2°55.959 20.4528 0.065682 0.349122 -1.000568
2010-05-20 06:59:19 51°13.665 2°55.959 20.4515 0.065682 0.349133 -1.035392
2010-05-20 06:59:24 51°13.665 2°55.959 20.4502 0.065682 0.349133 -1.035392
2010-05-20 06:59:29 51°13.665 2°55.959 20.4463 0.065682 0.349133 -1.000568
2010-05-20 06:59:34 51°13.665 2°55.959 20.4471 0.065578 0.348568 -1.035392
2010-05-20 06:59:39 51°13.665 2°55.959 20.4447 0.065682 0.349138 -1.035392
2010-05-20 06:59:44 51°13.665 2°55.959 20.4422 0.065578 0.348568 -1.000568
2010-05-20 06:59:49 51°13.665 2°55.959 20.4455 0.065578 0.348574 -1.035392
2010-05-20 06:59:54 51°13.665 2°55.959 20.4466 0.065578 0.348574 -1.035392
2010-05-20 06:59:59 51°13.665 2°55.959 20.4467 0.065578 0.348574 -1.035392
2010-05-20 07:00:04 51°13.665 2°55.959 20.4473 0.065682 0.349154 -1.000568
2010-05-20 07:00:09 51°13.665 2°55.959 20.448 0.065578 0.348579 -1.000568
2010-05-20 07:00:14 51°13.665 2°55.959 20.447 0.065578 0.348584 -1.000568
2010-05-20 07:00:19 51°13.665 2°55.959 20.4466 0.065578 0.348584 -1.035392
2010-05-20 07:00:24 51°13.665 2°55.959 20.4451 0.065578 0.348584 -1.035392
2010-05-20 07:00:29 51°13.665 2°55.959 20.4431 0.065578 0.34859 -1.000568
2010-05-20 07:00:34 51°13.665 2°55.959 20.4424 0.065578 0.34859 -1.000568
2010-05-20 07:00:39 51°13.665 2°55.959 20.4403 0.065578 0.348595 -1.000568
2010-05-20 07:00:44 51°13.665 2°55.96 20.4373 0.065682 0.349165 -1.035392
2010-05-20 07:00:49 51°13.665 2°55.96 20.4408 0.065682 0.349165 -1.035392
2010-05-20 07:00:54 51°13.665 2°55.96 20.4428 0.065578 0.348595 -1.035392
2010-05-20 07:00:59 51°13.665 2°55.96 20.4459 0.065578 0.348601 -1.035392
2010-05-20 07:01:04 51°13.665 2°55.96 20.4477 0.065578 0.348606 -1.035392
2010-05-20 07:01:09 51°13.665 2°55.96 20.4507 0.065682 0.349171 -1.000568
2010-05-20 07:01:14 51°13.665 2°55.96 20.452 0.065578 0.348612 -1.000568
2010-05-20 07:01:19 51°13.665 2°55.96 20.4532 0.065578 0.348612 -1.035392
2010-05-20 07:01:24 51°13.665 2°55.96 20.4507 0.065578 0.348612 -1.035392
2010-05-20 07:01:29 51°13.665 2°55.96 20.4489 0.065578 0.348612 -1.000568
2010-05-20 07:01:34 51°13.665 2°55.96 20.4492 0.065578 0.348612 -1.035392
2010-05-20 07:01:39 51°13.665 2°55.96 20.4458 0.065578 0.348617 -0.965744
2010-05-20 07:01:44 51°13.665 2°55.96 20.4451 0.065578 0.348622 -1.035392
2010-05-20 07:01:49 51°13.665 2°55.96 20.446 0.065578 0.348622 -1.035392
2010-05-20 07:01:54 51°13.665 2°55.96 20.4454 0.065578 0.348622 -1.035392
2010-05-20 07:01:59 51°13.665 2°55.96 20.4408 0.065578 0.348622 -1.035392
2010-05-20 07:02:04 51°13.665 2°55.96 20.4404 0.065578 0.348628 -1.035392
2010-05-20 07:02:09 51°13.665 2°55.96 20.4396 0.065578 0.348633 -1.000568
2010-05-20 07:02:14 51°13.665 2°55.96 20.4374 0.065578 0.348633 -1.000568
2010-05-20 07:02:19 51°13.665 2°55.959 20.4394 0.065578 0.348633 -1.000568
2010-05-20 07:02:24 51°13.665 2°55.959 20.4414 0.065578 0.348633 -1.000568
2010-05-20 07:02:29 51°13.665 2°55.959 20.4435 0.065578 0.348639 -1.035392
2010-05-20 07:02:34 51°13.665 2°55.959 20.441 0.065578 0.348639 -1.000568
2010-05-20 07:02:39 51°13.665 2°55.959 20.4436 0.065682 0.349214 -1.000568
2010-05-20 07:02:44 51°13.665 2°55.959 20.446 0.065578 0.348644 -1.000568
2010-05-20 07:02:49 51°13.665 2°55.959 20.4469 0.065682 0.349219 -1.000568
2010-05-20 07:02:54 51°13.665 2°55.959 20.4449 0.065682 0.349219 -1.000568
2010-05-20 07:02:59 51°13.665 2°55.959 20.4472 0.065578 0.348649 -1.035392
2010-05-20 07:03:04 51°13.665 2°55.959 20.446 0.065578 0.348655 -1.000568
2010-05-20 07:03:09 51°13.665 2°55.959 20.4443 0.065578 0.348649 -0.965744
2010-05-20 07:03:14 51°13.665 2°55.959 20.4433 0.065578 0.348655 -1.000568
2010-05-20 07:03:19 51°13.665 2°55.959 20.4394 0.065578 0.34866 -1.000568
2010-05-20 07:03:24 51°13.665 2°55.959 20.4408 0.065578 0.34866 -1.000568
2010-05-20 07:03:29 51°13.665 2°55.959 20.4407 0.065578 0.34866 -1.035392
2010-05-20 07:03:34 51°13.665 2°55.959 20.4453 0.065578 0.34866 -1.000568
2010-05-20 07:03:39 51°13.665 2°55.959 20.4483 0.065578 0.348666 -1.000568
2010-05-20 07:03:44 51°13.665 2°55.959 20.4475 0.065578 0.348671 -1.000568
2010-05-20 07:03:49 51°13.665 2°55.959 20.446 0.065578 0.348676 -1.000568
2010-05-20 07:03:54 51°13.665 2°55.959 20.4495 0.065578 0.348676 -1.000568
2010-05-20 07:03:59 51°13.665 2°55.959 20.4508 0.065578 0.348676 -1.000568
2010-05-20 07:04:04 51°13.665 2°55.959 20.4516 0.065578 0.348676 -1.035392
2010-05-20 07:04:09 51°13.665 2°55.96 20.4508 0.065578 0.348682 -1.000568
2010-05-20 07:04:14 51°13.665 2°55.96 20.4467 0.065578 0.348676 -1.035392
2010-05-20 07:04:19 51°13.664 2°55.96 20.4417 0.065578 0.348682 -1.000568
2010-05-20 07:04:24 51°13.664 2°55.96 20.4382 0.065578 0.348682 -1.000568
2010-05-20 07:04:29 51°13.664 2°55.96 20.4358 0.065578 0.348682 -1.000568
2010-05-20 07:04:34 51°13.664 2°55.96 20.4371 0.065578 0.348687 -1.035392
2010-05-20 07:04:39 51°13.664 2°55.96 20.4395 0.065578 0.348687 -1.035392
2010-05-20 07:04:44 51°13.664 2°55.96 20.4403 0.065578 0.348693 -1.000568
2010-05-20 07:04:49 51°13.664 2°55.96 20.44 0.065578 0.348698 -1.000568
2010-05-20 07:04:54 51°13.664 2°55.96 20.4423 0.065578 0.348698 -1.000568
2010-05-20 07:04:59 51°13.664 2°55.96 20.4414 0.065578 0.348698 -1.000568
2010-05-20 07:05:04 51°13.664 2°55.961 20.4411 0.065578 0.348703 -1.035392
2010-05-20 07:05:09 51°13.663 2°55.961 20.4416 0.065578 0.348709 -1.000568
2010-05-20 07:05:14 51°13.663 2°55.961 20.4423 0.065578 0.348709 -1.000568
2010-05-20 07:05:19 51°13.663 2°55.961 20.4405 0.065578 0.348703 -1.000568
2010-05-20 07:05:24 51°13.663 2°55.961 20.4376 0.065578 0.348703 -1.000568
2010-05-20 07:05:29 51°13.663 2°55.961 20.4282 0.065578 0.348703 -1.000568
2010-05-20 07:05:34 51°13.663 2°55.961 20.4282 0.065578 0.348703 -1.000568
2010-05-20 07:05:39 51°13.663 2°55.961 20.4276 0.065578 0.348714 -1.035392
2010-05-20 07:05:44 51°13.663 2°55.961 20.4294 0.065578 0.348714 -1.035392
2010-05-20 07:05:49 51°13.663 2°55.961 20.4282 0.065578 0.34872 -1.000568
2010-05-20 07:05:54 51°13.663 2°55.961 20.4303 0.065578 0.34872 -1.000568
2010-05-20 07:05:59 51°13.663 2°55.961 20.4333 0.065578 0.348714 -1.000568
2010-05-20 07:06:04 51°13.662 2°55.961 20.4339 0.065578 0.34872 -1.000568
2010-05-20 07:06:09 51°13.662 2°55.961 20.4344 0.065578 0.34872 -1.035392
2010-05-20 07:06:14 51°13.662 2°55.961 20.4356 0.065578 0.348725 -1.035392
2010-05-20 07:06:19 51°13.662 2°55.961 20.437 0.065578 0.348725 -1.000568
2010-05-20 07:06:24 51°13.662 2°55.961 20.4373 0.065578 0.348725 -1.000568
2010-05-20 07:06:29 51°13.662 2°55.961 20.4379 0.065578 0.34873 -1.000568
2010-05-20 07:06:34 51°13.662 2°55.961 20.4379 0.065578 0.34873 -1.000568
2010-05-20 07:06:39 51°13.662 2°55.961 20.4388 0.065578 0.348736 -1.035392
2010-05-20 07:06:44 51°13.662 2°55.961 20.4403 0.065578 0.348736 -1.035392
2010-05-20 07:06:49 51°13.662 2°55.961 20.4408 0.065578 0.348741 -1.000568
2010-05-20 07:06:54 51°13.662 2°55.961 20.4413 0.065578 0.348741 -1.000568
2010-05-20 07:06:59 51°13.662 2°55.961 20.444 0.065578 0.348741 -1.000568
2010-05-20 07:07:04 51°13.662 2°55.961 20.4435 0.065578 0.348747 -1.000568
2010-05-20 07:07:09 51°13.662 2°55.961 20.4414 0.065578 0.348752 -1.035392
2010-05-20 07:07:14 51°13.662 2°55.961 20.4388 0.065578 0.348747 -1.035392
2010-05-20 07:07:19 51°13.662 2°55.961 20.4386 0.065578 0.348747 -1.035392
2010-05-20 07:07:24 51°13.662 2°55.96 20.4376 0.065578 0.348747 -1.000568
2010-05-20 07:07:29 51°13.662 2°55.96 20.4378 0.065578 0.348758 -1.000568
2010-05-20 07:07:34 51°13.662 2°55.96 20.4341 0.065578 0.348758 -1.035392
2010-05-20 07:07:39 51°13.662 2°55.96 20.4348 0.065578 0.348758 -1.000568
2010-05-20 07:07:44 51°13.662 2°55.96 20.4344 0.065578 0.348758 -1.000568
2010-05-20 07:07:49 51°13.662 2°55.96 20.4318 0.065578 0.348763 -1.035392
2010-05-20 07:07:54 51°13.662 2°55.96 20.4332 0.065578 0.348763 -1.035392
2010-05-20 07:07:59 51°13.663 2°55.96 20.4314 0.065578 0.348763 -1.035392
2010-05-20 07:08:04 51°13.663 2°55.96 20.4324 0.065578 0.348763 -1.000568
2010-05-20 07:08:09 51°13.663 2°55.96 20.4263 0.065578 0.348763 -1.035392
2010-05-20 07:08:14 51°13.662 2°55.96 20.427 0.065578 0.348768 -1.000568
2010-05-20 07:08:19 51°13.662 2°55.96 20.4297 0.065578 0.348774 -1.035392
2010-05-20 07:08:24 51°13.662 2°55.96 20.4303 0.065578 0.348774 -1.035392
2010-05-20 07:08:29 51°13.663 2°55.96 20.4315 0.065578 0.348768 -1.000568
2010-05-20 07:08:34 51°13.662 2°55.96 20.4309 0.065578 0.348779 -1.035392
2010-05-20 07:08:39 51°13.663 2°55.96 20.4312 0.065578 0.348779 -1.000568
2010-05-20 07:08:44 51°13.663 2°55.96 20.4302 0.065578 0.348779 -1.035392
2010-05-20 07:08:49 51°13.663 2°55.96 20.4271 0.065578 0.348785 -1.035392
2010-05-20 07:08:54 51°13.663 2°55.96 20.4226 0.065578 0.348785 -1.035392
2010-05-20 07:08:59 51°13.663 2°55.96 20.4229 0.065578 0.348785 -1.035392
2010-05-20 07:09:04 51°13.663 2°55.96 20.4256 0.065578 0.34879 -1.035392
2010-05-20 07:09:09 51°13.663 2°55.96 20.4247 0.065578 0.34879 -1.000568
2010-05-20 07:09:14 51°13.663 2°55.96 20.4248 0.065578 0.34879 -1.000568
2010-05-20 07:09:19 51°13.663 2°55.96 20.4268 0.065578 0.348795 -1.000568
2010-05-20 07:09:24 51°13.663 2°55.96 20.4231 0.065578 0.348795 -1.000568
2010-05-20 07:09:29 51°13.663 2°55.96 20.4206 0.065578 0.348795 -1.035392
2010-05-20 07:09:34 51°13.663 2°55.96 20.4178 0.065578 0.348795 -1.000568
2010-05-20 07:09:39 51°13.663 2°55.96 20.419 0.065578 0.348801 -1.000568
2010-05-20 07:09:44 51°13.663 2°55.96 20.4194 0.065578 0.348801 -1.035392
2010-05-20 07:09:49 51°13.663 2°55.96 20.4139 0.065578 0.348806 -1.000568
2010-05-20 07:09:54 51°13.663 2°55.96 20.4154 0.065578 0.348806 -1.000568
2010-05-20 07:09:59 51°13.663 2°55.96 20.4187 0.065578 0.348806 -1.035392
2010-05-20 07:10:04 51°13.663 2°55.96 20.419 0.065578 0.348812 -1.035392
2010-05-20 07:10:09 51°13.663 2°55.96 20.4207 0.065578 0.348812 -1.035392
2010-05-20 07:10:14 51°13.663 2°55.96 20.4207 0.065578 0.348806 -1.000568
2010-05-20 07:10:19 51°13.663 2°55.96 20.4219 0.065578 0.348806 -1.000568
2010-05-20 07:10:24 51°13.663 2°55.96 20.4203 0.065578 0.348817 -1.000568
2010-05-20 07:10:29 51°13.663 2°55.96 20.4195 0.065578 0.348817 -1.000568
2010-05-20 07:10:34 51°13.663 2°55.96 20.4191 0.065578 0.348817 -1.035392
2010-05-20 07:10:39 51°13.663 2°55.96 20.4185 0.065578 0.348817 -1.035392
2010-05-20 07:10:44 51°13.663 2°55.96 20.4207 0.065578 0.348822 -1.035392
2010-05-20 07:10:49 51°13.663 2°55.96 20.4214 0.065578 0.348828 -1.000568
2010-05-20 07:10:54 51°13.663 2°55.96 20.4217 0.065578 0.348828 -1.000568
2010-05-20 07:10:59 51°13.663 2°55.96 20.4197 0.065578 0.348828 -1.000568
2010-05-20 07:11:04 51°13.663 2°55.96 20.4185 0.065578 0.348833 -1.035392
2010-05-20 07:11:09 51°13.663 2°55.96 20.4159 0.065578 0.348833 -1.000568
2010-05-20 07:11:14 51°13.663 2°55.96 20.4165 0.065578 0.348833 -1.000568
2010-05-20 07:11:19 51°13.663 2°55.96 20.4187 0.065578 0.348833 -1.035392
2010-05-20 07:11:24 51°13.663 2°55.96 20.4176 0.065578 0.348833 -1.035392
2010-05-20 07:11:29 51°13.663 2°55.96 20.4152 0.065578 0.348839 -0.965744
2010-05-20 07:11:34 51°13.663 2°55.96 20.4141 0.065578 0.348844 -1.035392
2010-05-20 07:11:39 51°13.663 2°55.96 20.4099 0.065578 0.348844 -1.035392
2010-05-20 07:11:44 51°13.663 2°55.96 20.4073 0.065578 0.34885 -1.035392
2010-05-20 07:11:49 51°13.663 2°55.96 20.3979 0.065578 0.34885 -1.035392
2010-05-20 07:11:54 51°13.663 2°55.96 20.3959 0.065578 0.34885 -1.035392
2010-05-20 07:11:59 51°13.663 2°55.96 20.3948 0.065578 0.34885 -1.035392
2010-05-20 07:12:04 51°13.663 2°55.96 20.3992 0.065578 0.348855 -1.000568
2010-05-20 07:12:09 51°13.663 2°55.961 20.3991 0.065578 0.348855 -1.000568
2010-05-20 07:12:14 51°13.663 2°55.961 20.3984 0.065578 0.34886 -1.035392
2010-05-20 07:12:19 51°13.663 2°55.961 20.3996 0.065578 0.348855 -1.035392
2010-05-20 07:12:24 51°13.663 2°55.961 20.4011 0.065578 0.348855 -1.035392
2010-05-20 07:12:29 51°13.663 2°55.961 20.4023 0.065578 0.34886 -1.000568
2010-05-20 07:12:34 51°13.663 2°55.961 20.4036 0.065578 0.348866 -0.965744
2010-05-20 07:12:39 51°13.663 2°55.961 20.408 0.065578 0.348866 -1.035392
2010-05-20 07:12:44 51°13.663 2°55.961 20.4056 0.065578 0.348866 -1.000568
2010-05-20 07:12:49 51°13.663 2°55.961 20.4066 0.065578 0.348871 -1.035392
2010-05-20 07:12:54 51°13.662 2°55.961 20.4076 0.065578 0.348871 -1.035392
2010-05-20 07:12:59 51°13.662 2°55.961 20.4089 0.065578 0.348871 -1.000568
2010-05-20 07:13:04 51°13.662 2°55.961 20.4088 0.065578 0.348877 -1.000568
2010-05-20 07:13:09 51°13.662 2°55.961 20.4106 0.065578 0.348877 -1.000568
2010-05-20 07:13:14 51°13.662 2°55.961 20.4109 0.065578 0.348882 -1.000568
2010-05-20 07:13:19 51°13.662 2°55.961 20.4107 0.065578 0.348882 -1.035392
2010-05-20 07:13:24 51°13.662 2°55.961 20.4071 0.065578 0.348882 -1.035392
2010-05-20 07:13:29 51°13.662 2°55.961 20.4053 0.065578 0.348882 -1.035392
2010-05-20 07:13:34 51°13.662 2°55.961 20.4053 0.065578 0.348887 -1.000568
2010-05-20 07:13:39 51°13.662 2°55.961 20.4077 0.065578 0.348887 -1.000568
2010-05-20 07:13:44 51°13.662 2°55.961 20.4069 0.065578 0.348893 -1.000568
2010-05-20 07:13:49 51°13.662 2°55.962 20.4016 0.065578 0.348898 -1.035392
2010-05-20 07:13:54 51°13.662 2°55.962 20.4029 0.065578 0.348898 -1.035392
2010-05-20 07:13:59 51°13.662 2°55.962 20.4044 0.065578 0.348893 -1.000568
2010-05-20 07:14:04 51°13.662 2°55.962 20.4006 0.065578 0.348898 -1.035392
2010-05-20 07:14:09 51°13.662 2°55.962 20.4028 0.065578 0.348904 -1.000568
2010-05-20 07:14:14 51°13.662 2°55.962 20.4031 0.065578 0.348904 -1.035392
2010-05-20 07:14:19 51°13.662 2°55.962 20.4044 0.065578 0.348904 -1.000568
2010-05-20 07:14:24 51°13.661 2°55.962 20.4036 0.065578 0.348904 -1.000568
2010-05-20 07:14:29 51°13.662 2°55.962 20.4037 0.065578 0.348909 -1.035392
2010-05-20 07:14:34 51°13.662 2°55.962 20.4017 0.065578 0.348914 -1.000568
2010-05-20 07:14:38 51°13.662 2°55.962 20.4 0.065578 0.348914 -0.965744
2010-05-20 07:14:43 51°13.662 2°55.962 20.3996 0.065578 0.348914 -1.000568
2010-05-20 07:14:48 51°13.662 2°55.962 20.3986 0.065578 0.348914 -1.000568
2010-05-20 07:14:53 51°13.662 2°55.962 20.3956 0.065578 0.348914 -1.035392
2010-05-20 07:14:58 51°13.662 2°55.962 20.3907 0.065578 0.34892 -1.000568
2010-05-20 07:15:02 51°13.661 2°55.962 20.3891 0.065578 0.348925 -1.035392
2010-05-20 07:15:07 51°13.661 2°55.962 20.3923 0.065578 0.348925 -1.035392
2010-05-20 07:15:12 51°13.661 2°55.962 20.3963 0.065578 0.348925 -1.000568
2010-05-20 07:15:18 51°13.661 2°55.962 20.3991 0.065578 0.348931 -1.035392
2010-05-20 07:15:22 51°13.662 2°55.962 20.4014 0.065578 0.348931 -1.035392
2010-05-20 07:15:27 51°13.662 2°55.962 20.4023 0.065578 0.348931 -1.035392
2010-05-20 07:15:32 51°13.662 2°55.962 20.4023 0.065578 0.348936 -1.035392
2010-05-20 07:15:37 51°13.662 2°55.962 20.4031 0.065578 0.348936 -1.035392
2010-05-20 07:15:42 51°13.662 2°55.962 20.4023 0.065578 0.348942 -1.000568
2010-05-20 07:15:46 51°13.662 2°55.962 20.4013 0.065578 0.348936 -1.035392
2010-05-20 07:15:51 51°13.662 2°55.962 20.3988 0.065578 0.348936 -1.035392
2010-05-20 07:15:56 51°13.662 2°55.962 20.3996 0.065578 0.348942 -1.000568
2010-05-20 07:16:01 51°13.661 2°55.962 20.3999 0.065578 0.348942 -1.035392
2010-05-20 07:16:06 51°13.661 2°55.962 20.4008 0.065578 0.348947 -1.035392
2010-05-20 07:16:10 51°13.661 2°55.962 20.4011 0.065578 0.348952 -1.035392
2010-05-20 07:16:15 51°13.661 2°55.962 20.3989 0.065578 0.348952 -1.035392
2010-05-20 07:16:20 51°13.661 2°55.962 20.3998 0.065578 0.348952 -1.000568
2010-05-20 07:16:26 51°13.662 2°55.962 20.4012 0.065578 0.348958 -1.000568
2010-05-20 07:16:30 51°13.662 2°55.962 20.4021 0.065578 0.348958 -1.035392
2010-05-20 07:16:34 51°13.662 2°55.962 20.4029 0.065578 0.348958 -1.000568
2010-05-20 07:16:40 51°13.662 2°55.962 20.4021 0.065578 0.348958 -1.035392
2010-05-20 07:16:45 51°13.662 2°55.962 20.3986 0.065578 0.348958 -1.035392
2010-05-20 07:16:50 51°13.662 2°55.962 20.3957 0.065578 0.348958 -1.000568
2010-05-20 07:16:54 51°13.662 2°55.962 20.3933 0.065578 0.348963 -1.000568
2010-05-20 07:17:00 51°13.662 2°55.962 20.3891 0.065578 0.348969 -1.000568
2010-05-20 07:17:05 51°13.662 2°55.962 20.3844 0.065578 0.348969 -1.000568
2010-05-20 07:17:10 51°13.662 2°55.962 20.38 0.065578 0.348963 -1.035392
2010-05-20 07:17:14 51°13.662 2°55.962 20.369 0.065578 0.348969 -1.035392
2010-05-20 07:17:20 51°13.662 2°55.962 20.3681 0.065578 0.348969 -1.035392
2010-05-20 07:17:25 51°13.662 2°55.962 20.3706 0.065578 0.348974 -1.000568
2010-05-20 07:17:30 51°13.662 2°55.962 20.3744 0.065578 0.348979 -1.035392
2010-05-20 07:17:35 51°13.662 2°55.961 20.3781 0.065578 0.348979 -1.000568
2010-05-20 07:17:40 51°13.662 2°55.961 20.3851 0.065578 0.348985 -1.035392
2010-05-20 07:17:45 51°13.662 2°55.961 20.3898 0.065578 0.348985 -1.035392
2010-05-20 07:17:50 51°13.662 2°55.961 20.3979 0.065578 0.348985 -1.035392
2010-05-20 07:17:55 51°13.662 2°55.961 20.403 0.065578 0.348985 -1.000568
2010-05-20 07:18:00 51°13.662 2°55.961 20.4071 0.065578 0.34899 -1.000568
2010-05-20 07:18:05 51°13.662 2°55.961 20.411 0.065578 0.34899 -1.000568
2010-05-20 07:18:10 51°13.662 2°55.961 20.4149 0.065578 0.34899 -1.000568
2010-05-20 07:18:14 51°13.662 2°55.961 20.4177 0.065578 0.348996 -1.000568
2010-05-20 07:18:20 51°13.662 2°55.961 20.4188 0.065578 0.348996 -1.000568
2010-05-20 07:18:25 51°13.662 2°55.961 20.4181 0.065578 0.349001 -1.035392
2010-05-20 07:18:30 51°13.662 2°55.961 20.4197 0.065578 0.349001 -1.035392
2010-05-20 07:18:34 51°13.662 2°55.961 20.4217 0.065578 0.349007 -1.000568
2010-05-20 07:18:40 51°13.662 2°55.961 20.4224 0.065578 0.349007 -1.000568
2010-05-20 07:18:45 51°13.662 2°55.961 20.4247 0.065578 0.349012 -1.000568
2010-05-20 07:18:50 51°13.662 2°55.961 20.4256 0.065578 0.349012 -1.000568
2010-05-20 07:18:54 51°13.663 2°55.961 20.4263 0.065578 0.349017 -1.000568
2010-05-20 07:19:00 51°13.663 2°55.961 20.4239 0.065578 0.349017 -1.000568
2010-05-20 07:19:05 51°13.663 2°55.961 20.4264 0.065578 0.349017 -1.035392
2010-05-20 07:19:10 51°13.663 2°55.961 20.427 0.065578 0.349017 -1.035392
2010-05-20 07:19:14 51°13.663 2°55.961 20.4281 0.065578 0.349017 -0.965744
2010-05-20 07:19:20 51°13.663 2°55.961 20.4289 0.065578 0.349017 -0.965744
2010-05-20 07:19:25 51°13.663 2°55.961 20.4281 0.065578 0.349023 -1.035392
2010-05-20 07:19:30 51°13.663 2°55.961 20.4254 0.065578 0.349028 -1.000568
2010-05-20 07:19:34 51°13.663 2°55.961 20.4185 0.065578 0.349028 -1.000568
2010-05-20 07:19:40 51°13.663 2°55.961 20.4128 0.065578 0.349028 -1.035392
2010-05-20 07:19:45 51°13.663 2°55.961 20.4142 0.065578 0.349028 -1.035392
2010-05-20 07:19:50 51°13.663 2°55.961 20.4131 0.065578 0.349034 -1.035392
2010-05-20 07:19:54 51°13.663 2°55.961 20.4068 0.065578 0.349034 -1.035392
2010-05-20 07:20:00 51°13.662 2°55.962 20.406 0.065578 0.349034 -1.000568
2010-05-20 07:20:05 51°13.662 2°55.962 20.4051 0.065578 0.349039 -1.000568
2010-05-20 07:20:10 51°13.662 2°55.962 20.4062 0.065578 0.349039 -1.035392
2010-05-20 07:20:14 51°13.662 2°55.962 20.4083 0.065578 0.349039 -1.035392
2010-05-20 07:20:20 51°13.662 2°55.962 20.4089 0.065578 0.349045 -1.000568
2010-05-20 07:20:25 51°13.662 2°55.962 20.4094 0.065578 0.349045 -1.000568
2010-05-20 07:20:30 51°13.662 2°55.962 20.4094 0.065578 0.349045 -1.000568
2010-05-20 07:20:34 51°13.662 2°55.962 20.4084 0.065578 0.34905 -1.000568
2010-05-20 07:20:40 51°13.662 2°55.962 20.4074 0.065578 0.34905 -1.035392
2010-05-20 07:20:45 51°13.662 2°55.962 20.4084 0.065578 0.34905 -1.000568
2010-05-20 07:20:50 51°13.662 2°55.962 20.4073 0.065578 0.34905 -1.000568
2010-05-20 07:20:55 51°13.662 2°55.963 20.4052 0.065578 0.349055 -1.000568
2010-05-20 07:21:00 51°13.662 2°55.963 20.4049 0.065578 0.349055 -1.000568
2010-05-20 07:21:05 51°13.662 2°55.963 20.4053 0.065578 0.349061 -1.000568
2010-05-20 07:21:10 51°13.662 2°55.963 20.4053 0.065578 0.349061 -1.035392
2010-05-20 07:21:15 51°13.662 2°55.962 20.4048 0.065578 0.349066 -1.000568
2010-05-20 07:21:20 51°13.662 2°55.962 20.4044 0.065578 0.349066 -1.000568
2010-05-20 07:21:25 51°13.662 2°55.962 20.4044 0.065578 0.349066 -1.000568
2010-05-20 07:21:30 51°13.662 2°55.962 20.4035 0.065578 0.349072 -1.000568
2010-05-20 07:21:35 51°13.662 2°55.962 20.4024 0.065578 0.349072 -1.035392
2010-05-20 07:21:40 51°13.662 2°55.962 20.4014 0.065578 0.349077 -1.000568
2010-05-20 07:21:45 51°13.662 2°55.962 20.4024 0.065578 0.349077 -1.000568
2010-05-20 07:21:50 51°13.662 2°55.962 20.4017 0.065578 0.349077 -1.035392
2010-05-20 07:21:54 51°13.662 2°55.962 20.4036 0.065578 0.349077 -1.035392
2010-05-20 07:22:00 51°13.662 2°55.962 20.4053 0.065578 0.349082 -1.035392
2010-05-20 07:22:05 51°13.662 2°55.962 20.4032 0.065578 0.349082 -0.965744
2010-05-20 07:22:10 51°13.662 2°55.962 20.4039 0.065578 0.349082 -1.035392
2010-05-20 07:22:14 51°13.662 2°55.962 20.4046 0.065578 0.349082 -1.035392
2010-05-20 07:22:20 51°13.663 2°55.962 20.404 0.065578 0.349093 -1.000568
2010-05-20 07:22:25 51°13.663 2°55.962 20.4026 0.065578 0.349093 -1.035392
2010-05-20 07:22:30 51°13.663 2°55.962 20.4028 0.065578 0.349093 -1.035392
2010-05-20 07:22:34 51°13.663 2°55.962 20.403 0.065578 0.349093 -1.000568
2010-05-20 07:22:40 51°13.663 2°55.962 20.4 0.065578 0.349093 -1.035392
2010-05-20 07:22:45 51°13.663 2°55.962 20.4018 0.065578 0.349093 -1.000568
2010-05-20 07:22:50 51°13.663 2°55.962 20.4019 0.065578 0.349093 -1.000568
2010-05-20 07:22:54 51°13.663 2°55.962 20.4008 0.065578 0.349099 -1.000568
2010-05-20 07:23:00 51°13.663 2°55.962 20.4012 0.065578 0.349104 -1.000568
2010-05-20 07:23:05 51°13.663 2°55.962 20.4029 0.065578 0.349104 -1.035392
2010-05-20 07:23:10 51°13.663 2°55.962 20.4016 0.065578 0.349104 -1.035392
2010-05-20 07:23:14 51°13.663 2°55.962 20.4034 0.065578 0.349104 -1.035392
2010-05-20 07:23:20 51°13.663 2°55.961 20.4073 0.065578 0.34911 -1.000568
2010-05-20 07:23:25 51°13.663 2°55.96 20.4064 0.065578 0.34911 -1.000568
2010-05-20 07:23:30 51°13.663 2°55.96 20.4073 0.065578 0.34911 -1.035392
2010-05-20 07:23:34 51°13.663 2°55.96 20.4081 0.065578 0.349115 -1.000568
2010-05-20 07:23:40 51°13.663 2°55.959 20.4076 0.065578 0.349115 -1.035392
2010-05-20 07:23:45 51°13.663 2°55.959 20.4054 0.065578 0.349115 -1.035392
2010-05-20 07:23:50 51°13.663 2°55.959 20.4031 0.065578 0.349115 -1.035392
2010-05-20 07:23:54 51°13.663 2°55.96 20.4008 0.065578 0.349115 -1.000568
2010-05-20 07:24:00 51°13.663 2°55.96 20.3982 0.065578 0.349115 -1.000568
2010-05-20 07:24:05 51°13.663 2°55.96 20.4001 0.065578 0.34912 -1.035392
2010-05-20 07:24:10 51°13.663 2°55.96 20.4068 0.065578 0.349126 -1.000568
2010-05-20 07:24:14 51°13.663 2°55.96 20.4077 0.065578 0.349131 -1.035392
2010-05-20 07:24:20 51°13.663 2°55.96 20.4034 0.065578 0.349131 -1.035392
2010-05-20 07:24:25 51°13.662 2°55.961 20.4039 0.065578 0.349131 -1.035392
2010-05-20 07:24:30 51°13.662 2°55.961 20.4041 0.065578 0.349131 -1.000568
2010-05-20 07:24:34 51°13.662 2°55.961 20.4028 0.065578 0.349137 -1.000568
2010-05-20 07:24:40 51°13.662 2°55.962 20.4022 0.065578 0.349142 -1.035392
2010-05-20 07:24:45 51°13.662 2°55.962 20.4006 0.065578 0.349142 -1.000568
2010-05-20 07:24:50 51°13.662 2°55.962 20.4012 0.065578 0.349142 -1.000568
2010-05-20 07:24:54 51°13.662 2°55.962 20.4007 0.065578 0.349148 -1.035392
2010-05-20 07:25:00 51°13.662 2°55.962 20.4006 0.065578 0.349148 -1.035392
2010-05-20 07:25:05 51°13.662 2°55.962 20.4006 0.065578 0.349153 -0.965744
2010-05-20 07:25:10 51°13.662 2°55.962 20.4008 0.065578 0.349153 -1.035392
2010-05-20 07:25:14 51°13.662 2°55.962 20.4001 0.065578 0.349148 -1.000568
2010-05-20 07:25:20 51°13.662 2°55.962 20.3997 0.065578 0.349148 -1.000568
2010-05-20 07:25:25 51°13.662 2°55.962 20.3947 0.065578 0.349148 -1.035392
2010-05-20 07:25:31 51°13.662 2°55.962 20.3948 0.065578 0.349148 -1.035392
2010-05-20 07:25:34 51°13.662 2°55.962 20.3944 0.065578 0.349158 -1.000568
2010-05-20 07:25:39 51°13.662 2°55.962 20.3942 0.065578 0.349158 -1.035392
2010-05-20 07:25:45 51°13.662 2°55.962 20.3933 0.065578 0.349158 -1.035392
2010-05-20 07:25:50 51°13.662 2°55.962 20.3925 0.065578 0.349158 -1.000568
2010-05-20 07:25:55 51°13.662 2°55.962 20.3941 0.065578 0.349169 -1.035392
2010-05-20 07:26:00 51°13.661 2°55.962 20.3919 0.065578 0.349164 -1.035392
2010-05-20 07:26:05 51°13.661 2°55.962 20.3914 0.065578 0.349164 -1.000568
2010-05-20 07:26:10 51°13.661 2°55.961 20.3914 0.065578 0.349169 -1.000568
2010-05-20 07:26:15 51°13.661 2°55.961 20.389 0.065578 0.349164 -0.965744
2010-05-20 07:26:20 51°13.661 2°55.961 20.3607 0.065578 0.349164 -0.965744
2010-05-20 07:26:25 51°13.661 2°55.961 20.3307 0.065578 0.349169 -1.000568
2010-05-20 07:26:30 51°13.661 2°55.96 20.3235 0.065578 0.349169 -1.035392
2010-05-20 07:26:35 51°13.661 2°55.959 20.3265 0.065578 0.34918 -1.035392
2010-05-20 07:26:40 51°13.662 2°55.958 20.3191 0.065578 0.349169 -1.000568
2010-05-20 07:26:45 51°13.662 2°55.956 20.3223 0.065578 0.34918 -1.035392
2010-05-20 07:26:50 51°13.663 2°55.953 20.3352 0.065578 0.34918 -1.035392
2010-05-20 07:26:55 51°13.663 2°55.95 20.3633 0.065578 0.34918 -1.000568
2010-05-20 07:26:59 51°13.664 2°55.947 20.3575 0.065578 0.34918 -1.035392
2010-05-20 07:27:05 51°13.665 2°55.941 20.3627 0.065578 0.349186 -1.000568
2010-05-20 07:27:11 51°13.667 2°55.935 20.3896 0.065578 0.349191 -1.035392
2010-05-20 07:27:16 51°13.668 2°55.929 20.3781 0.065578 0.349191 -1.035392
2010-05-20 07:27:23 51°13.671 2°55.92 20.3876 0.065578 0.349191 -1.035392
2010-05-20 07:27:28 51°13.672 2°55.913 20.4126 0.065578 0.349191 -1.000568
2010-05-20 07:27:34 51°13.675 2°55.905 20.4239 0.065578 0.349196 -0.965744
2010-05-20 07:27:39 51°13.676 2°55.898 20.4167 0.065578 0.349196 -1.000568
2010-05-20 07:27:43 51°13.678 2°55.892 20.4182 0.065578 0.349202 -1.035392
2010-05-20 07:27:49 51°13.68 2°55.883 20.4144 0.065578 0.349202 -1.035392
2010-05-20 07:27:54 51°13.681 2°55.875 20.4145 0.065578 0.349202 -1.035392
2010-05-20 07:27:59 51°13.683 2°55.868 20.4122 0.065578 0.349202 -1.000568
2010-05-20 07:28:03 51°13.684 2°55.862 20.4103 0.065578 0.349202 -1.000568
2010-05-20 07:28:09 51°13.686 2°55.852 20.408 0.065578 0.349207 -1.035392
2010-05-20 07:28:14 51°13.687 2°55.845 20.4064 0.065578 0.349207 -1.035392
2010-05-20 07:28:19 51°13.689 2°55.837 20.4034 0.065578 0.349213 -1.035392
2010-05-20 07:28:23 51°13.69 2°55.831 20.4001 0.065578 0.349213 -1.035392
2010-05-20 07:28:29 51°13.691 2°55.823 20.3969 0.065578 0.349213 -1.035392
2010-05-20 07:28:34 51°13.692 2°55.816 20.3948 0.065578 0.349218 -1.000568
2010-05-20 07:28:39 51°13.693 2°55.809 20.3916 0.065578 0.349213 -1.000568
2010-05-20 07:28:43 51°13.694 2°55.803 20.3872 0.065578 0.349218 -1.000568
2010-05-20 07:28:48 51°13.695 2°55.797 20.3845 0.065578 0.349218 -1.000568
2010-05-20 07:28:54 51°13.696 2°55.789 20.3829 0.065578 0.349218 -1.000568
2010-05-20 07:28:59 51°13.696 2°55.783 20.3842 0.065578 0.349218 -1.000568
2010-05-20 07:29:03 51°13.697 2°55.778 20.4009 0.065578 0.349218 -1.035392
2010-05-20 07:29:09 51°13.698 2°55.77 20.3925 0.065578 0.349224 -1.035392
2010-05-20 07:29:13 51°13.698 2°55.765 20.3679 0.065578 0.349224 -1.035392
2010-05-20 07:29:19 51°13.698 2°55.759 20.3803 0.065578 0.349224 -1.035392
2010-05-20 07:29:23 51°13.698 2°55.755 20.3781 0.065578 0.349229 -1.035392
2010-05-20 07:29:28 51°13.698 2°55.75 20.3814 0.065578 0.349229 -1.035392
2010-05-20 07:29:33 51°13.698 2°55.746 20.3794 0.065578 0.349234 -1.000568
2010-05-20 07:29:38 51°13.699 2°55.742 20.38 0.065578 0.349234 -1.000568
2010-05-20 07:29:43 51°13.699 2°55.739 20.3889 0.065578 0.349234 -1.035392
2010-05-20 07:29:47 51°13.7 2°55.737 20.4003 0.065474 0.348669 -1.000568
2010-05-20 07:29:52 51°13.7 2°55.735 20.3896 0.065474 0.348669 -1.000568
2010-05-20 07:29:57 51°13.7 2°55.735 20.4059 0.065578 0.349234 -1.000568
2010-05-20 07:30:02 51°13.7 2°55.734 20.4224 0.065578 0.349234 -1.000568
2010-05-20 07:30:07 51°13.701 2°55.734 20.4425 0.065578 0.34924 -1.035392
2010-05-20 07:30:12 51°13.701 2°55.734 20.4135 0.065578 0.349245 -1.035392
2010-05-20 07:30:16 51°13.702 2°55.734 20.3977 0.065578 0.349245 -1.035392
2010-05-20 07:30:21 51°13.703 2°55.734 20.3832 0.065578 0.349245 -1.000568
2010-05-20 07:30:26 51°13.704 2°55.735 20.38 0.065578 0.349245 -1.035392
2010-05-20 07:30:31 51°13.706 2°55.735 20.3794 0.065578 0.349251 -1.035392
2010-05-20 07:30:36 51°13.707 2°55.736 20.3733 0.065578 0.349251 -1.000568
2010-05-20 07:30:41 51°13.709 2°55.736 20.3632 0.065578 0.349256 -1.000568
2010-05-20 07:30:46 51°13.71 2°55.737 20.2867 0.065578 0.349251 -1.035392
2010-05-20 07:30:51 51°13.711 2°55.737 20.3331 0.065578 0.349251 -1.035392
2010-05-20 07:30:55 51°13.711 2°55.737 20.2582 0.065578 0.349251 -1.000568
2010-05-20 07:31:00 51°13.711 2°55.736 20.2433 0.065578 0.349251 -1.000568
2010-05-20 07:31:05 51°13.71 2°55.735 20.3096 0.065578 0.349251 -1.000568
2010-05-20 07:31:10 51°13.71 2°55.734 20.354 0.065578 0.349256 -1.000568
2010-05-20 07:31:15 51°13.708 2°55.732 20.379 0.065578 0.349256 -1.000568
2010-05-20 07:31:20 51°13.707 2°55.731 20.3808 0.065474 0.348685 -1.000568
2010-05-20 07:31:25 51°13.706 2°55.73 20.3677 0.065474 0.348691 -1.035392
2010-05-20 07:31:31 51°13.704 2°55.729 20.3643 0.065578 0.349262 -1.000568
2010-05-20 07:31:36 51°13.704 2°55.728 20.3746 0.065578 0.349256 -1.035392
2010-05-20 07:31:42 51°13.703 2°55.727 20.3853 0.065578 0.349256 -1.000568
2010-05-20 07:31:48 51°13.704 2°55.727 20.4066 0.065578 0.349256 -1.000568
2010-05-20 07:31:54 51°13.705 2°55.726 20.4217 0.065578 0.349256 -1.000568
2010-05-20 07:31:59 51°13.706 2°55.726 20.4437 0.065578 0.349262 -1.035392
2010-05-20 07:32:03 51°13.708 2°55.725 20.4368 0.065578 0.349267 -1.035392
2010-05-20 07:32:09 51°13.71 2°55.725 20.4359 0.065578 0.349267 -1.000568
2010-05-20 07:32:14 51°13.713 2°55.723 20.4721 0.065474 0.348701 -1.000568
2010-05-20 07:32:19 51°13.716 2°55.722 20.4889 0.065578 0.349272 -1.000568
2010-05-20 07:32:23 51°13.72 2°55.72 20.4664 0.065578 0.349272 -1.000568
2010-05-20 07:32:28 51°13.724 2°55.717 20.4605 0.065578 0.349278 -1.035392
2010-05-20 07:32:33 51°13.73 2°55.713 20.4479 0.065578 0.349272 -1.035392
2010-05-20 07:32:38 51°13.735 2°55.709 20.4001 0.065578 0.349272 -1.035392
2010-05-20 07:32:43 51°13.742 2°55.704 20.3535 0.065578 0.349267 -1.000568
2010-05-20 07:32:47 51°13.748 2°55.7 20.3088 0.065578 0.349267 -1.000568
2010-05-20 07:32:52 51°13.755 2°55.695 20.2271 0.065578 0.349267 -1.000568
2010-05-20 07:32:57 51°13.764 2°55.689 20.2195 0.065578 0.349262 -1.000568
2010-05-20 07:33:02 51°13.772 2°55.683 20.2086 0.065578 0.349267 -1.000568
2010-05-20 07:33:07 51°13.781 2°55.677 20.2322 0.065474 0.348701 -1.035392
2010-05-20 07:33:11 51°13.788 2°55.672 20.2547 0.065578 0.349278 -1.035392
2010-05-20 07:33:17 51°13.799 2°55.664 20.2833 0.065578 0.349289 -1.035392
2010-05-20 07:33:22 51°13.808 2°55.657 20.268 0.065578 0.349289 -1.035392
2010-05-20 07:33:26 51°13.816 2°55.651 20.248 0.065578 0.3493 -1.000568
2010-05-20 07:33:31 51°13.825 2°55.644 20.2221 0.065474 0.348734 -1.000568
2010-05-20 07:33:35 51°13.833 2°55.638 20.2089 0.065578 0.349305 -1.000568
2010-05-20 07:33:41 51°13.845 2°55.629 20.1817 0.065474 0.348734 -1.035392
2010-05-20 07:33:46 51°13.856 2°55.622 20.201 0.065578 0.3493 -1.035392
2010-05-20 07:33:51 51°13.866 2°55.614 20.2224 0.065578 0.3493 -1.035392
2010-05-20 07:33:55 51°13.874 2°55.608 20.2179 0.065578 0.3493 -1.000568
2010-05-20 07:34:00 51°13.885 2°55.601 20.2343 0.065578 0.34931 -1.000568
2010-05-20 07:34:05 51°13.895 2°55.593 20.2261 0.065474 0.348739 -1.035392
2010-05-20 07:34:10 51°13.906 2°55.585 20.2258 0.065474 0.348739 -1.000568
2010-05-20 07:34:15 51°13.917 2°55.578 20.2391 0.065578 0.349305 -1.035392
2010-05-20 07:34:20 51°13.928 2°55.57 20.2561 0.065578 0.349305 -1.035392
2010-05-20 07:34:25 51°13.938 2°55.562 20.2568 0.065578 0.34931 -1.000568
2010-05-20 07:34:31 51°13.951 2°55.552 20.2545 0.065578 0.349316 -1.000568
2010-05-20 07:34:35 51°13.96 2°55.545 20.2211 0.065578 0.349316 -0.965744
2010-05-20 07:34:40 51°13.971 2°55.537 20.2209 0.065578 0.349321 -1.035392
2010-05-20 07:34:45 51°13.981 2°55.529 20.1832 0.065578 0.349321 -1.035392
2010-05-20 07:34:50 51°13.992 2°55.52 20.1909 0.065578 0.349316 -1.000568
2010-05-20 07:34:55 51°14.003 2°55.512 20.1884 0.065474 0.348745 -1.035392
2010-05-20 07:35:00 51°14.014 2°55.505 20.184 0.065578 0.349316 -1.035392
2010-05-20 07:35:05 51°14.025 2°55.497 20.2213 0.065474 0.348745 -1.035392
2010-05-20 07:35:10 51°14.036 2°55.49 20.2797 0.065578 0.349316 -1.000568
2010-05-20 07:35:15 51°14.047 2°55.482 20.2823 0.065474 0.34875 -1.035392
2010-05-20 07:35:20 51°14.058 2°55.474 20.2988 0.065474 0.34875 -1.035392
2010-05-20 07:35:25 51°14.069 2°55.466 20.3276 0.065578 0.349327 -1.035392
2010-05-20 07:35:30 51°14.08 2°55.458 20.3601 0.065578 0.349327 -1.035392
2010-05-20 07:35:35 51°14.091 2°55.449 20.3378 0.065578 0.349332 -1.000568
2010-05-20 07:35:40 51°14.101 2°55.44 20.3343 0.065474 0.348766 -1.035392
2010-05-20 07:35:45 51°14.112 2°55.431 20.3267 0.065578 0.349343 -1.000568
2010-05-20 07:35:50 51°14.123 2°55.422 20.2972 0.065578 0.349343 -1.000568
2010-05-20 07:35:55 51°14.134 2°55.412 20.2998 0.065474 0.348772 -1.000568
2010-05-20 07:35:59 51°14.142 2°55.404 20.2642 0.065578 0.349338 -1.000568
2010-05-20 07:36:05 51°14.156 2°55.391 20.2286 0.065578 0.349338 -1.035392
2010-05-20 07:36:10 51°14.167 2°55.381 20.2407 0.065578 0.349338 -1.000568
2010-05-20 07:36:15 51°14.178 2°55.37 20.2379 0.065578 0.349338 -1.000568
2010-05-20 07:36:20 51°14.189 2°55.36 20.2702 0.065578 0.349338 -1.035392
2010-05-20 07:36:25 51°14.2 2°55.349 20.2688 0.065474 0.348772 -1.000568
2010-05-20 07:36:30 51°14.212 2°55.338 20.197 0.065578 0.349348 -1.000568
2010-05-20 07:36:35 51°14.223 2°55.326 20.2045 0.065474 0.348777 -1.000568
2010-05-20 07:36:40 51°14.235 2°55.315 20.167 0.065578 0.349354 -1.035392
2010-05-20 07:36:45 51°14.246 2°55.304 20.1985 0.065578 0.349354 -1.035392
2010-05-20 07:36:50 51°14.259 2°55.292 20.1985 0.065578 0.349354 -1.035392
2010-05-20 07:36:55 51°14.271 2°55.28 20.1617 0.065578 0.349359 -1.000568
2010-05-20 07:37:00 51°14.283 2°55.268 20.2032 0.065474 0.348788 -1.000568
2010-05-20 07:37:05 51°14.296 2°55.255 20.2352 0.065578 0.349359 -1.000568
2010-05-20 07:37:10 51°14.309 2°55.243 20.0339 0.065578 0.349354 -1.035392
2010-05-20 07:37:15 51°14.322 2°55.23 20.1431 0.065474 0.348788 -1.000568
2010-05-20 07:37:20 51°14.335 2°55.218 20.1453 0.065474 0.348788 -1.000568
2010-05-20 07:37:25 51°14.348 2°55.205 20.1646 0.065578 0.349359 -1.035392
2010-05-20 07:37:30 51°14.362 2°55.192 20.1248 0.065474 0.348794 -1.000568
2010-05-20 07:37:35 51°14.376 2°55.179 20.072 0.065578 0.349365 -1.000568
2010-05-20 07:37:40 51°14.39 2°55.167 19.9905 0.065578 0.349365 -1.000568
2010-05-20 07:37:45 51°14.404 2°55.154 19.9786 0.065578 0.349365 -1.000568
2010-05-20 07:37:50 51°14.419 2°55.142 20.036 0.065474 0.348804 -1.035392
2010-05-20 07:37:55 51°14.434 2°55.13 20.0292 0.065474 0.348799 -1.035392
2010-05-20 07:38:00 51°14.45 2°55.119 20.1535 0.065474 0.348804 -1.035392
2010-05-20 07:38:05 51°14.465 2°55.107 20.0783 0.065578 0.349381 -1.035392
2010-05-20 07:38:10 51°14.479 2°55.093 20.1301 0.065578 0.349397 -1.000568
2010-05-20 07:38:15 51°14.493 2°55.078 20.1261 0.065578 0.349397 -1.000568
2010-05-20 07:38:20 51°14.507 2°55.062 20.0742 0.065578 0.349403 -1.000568